GFSNGP_925_thetae_060.txt.gz
Theta_e
315 315 315 316 316 314 315 315 316 316 313 313 313 311 309 308 308 310 312 318 317 316 315 317 314 312 312 311 310 309 307 306 305 305 306 306 303 302 299 298 298 296 295 295
317 316 317 319 316 315 315 315 314 314 313 310 310 310 309 309 312 315 314 315 317 314 314 313 311 309 308 307 307 307 306 305 305 306 304 303 301 299 298 296 295 297 296 295
317 313 315 315 314 315 315 313 314 314 312 309 311 311 310 310 312 313 312 312 312 311 310 309 309 308 307 307 306 305 305 304 302 301 299 298 296 295 297 299 299 297 295 294
312 310 314 315 313 313 314 312 310 310 311 309 309 309 306 304 309 306 304 303 303 302 301 303 305 304 303 303 303 301 298 298 297 296 296 298 299 299 299 297 294 294 293 293
314 314 313 315 312 312 312 311 309 309 309 310 309 309 307 300 298 298 297 295 295 297 298 298 298 299 299 298 297 296 297 298 299 299 299 298 298 298 295 293 293 292 292 292
309 314 315 313 313 308 309 311 309 310 311 311 309 308 308 299 296 295 294 294 294 295 295 296 296 297 296 296 297 298 299 299 299 298 298 298 294 293 293 292 291 291 291 291
305 311 313 312 311 308 312 313 308 309 311 309 309 305 299 295 294 293 293 293 294 294 293 294 295 295 295 296 297 298 299 299 298 294 293 292 292 291 290 290 290 290 290 290
307 309 319 309 310 311 309 309 309 308 308 308 300 298 296 294 293 293 293 293 294 294 294 294 295 296 296 295 294 294 294 293 292 291 291 290 290 290 290 290 290 290 290 290
316 316 312 309 310 309 307 309 310 309 308 302 299 297 295 294 293 292 293 294 294 294 294 294 294 294 293 293 292 292 291 291 290 290 290 290 290 290 290 289 289 288 288 287
315 314 314 313 311 310 310 310 308 308 303 301 298 296 295 294 293 292 294 293 294 293 291 289 290 290 290 290 290 290 290 289 288 288 287 286 286 285 285 285 285 286 286 286
314 314 313 312 308 306 304 303 303 300 300 299 297 295 294 293 293 294 294 293 292 290 289 289 289 288 288 287 288 287 285 284 283 282 281 281 281 281 282 283 284 285 285 285
317 314 313 311 304 303 303 302 300 299 297 296 296 295 294 294 294 293 291 290 289 289 288 286 285 284 284 284 283 283 282 281 280 280 279 280 280 280 280 281 282 282 282 282
314 310 305 303 301 300 300 298 297 297 296 294 294 294 294 293 291 290 290 289 288 287 285 283 282 282 282 281 281 280 279 279 278 278 278 279 279 279 280 280 281 281 281 281
304 305 304 303 301 297 296 295 295 294 294 294 294 293 291 290 290 288 287 287 287 285 283 282 281 280 279 278 278 277 277 277 277 277 277 277 278 279 279 280 279 278 278 278
301 301 302 298 296 295 294 294 294 293 292 291 291 290 289 288 286 286 286 285 283 282 281 280 279 279 277 277 277 276 276 276 276 276 276 275 275 275 276 276 276 277 276 275
298 299 298 297 296 295 294 293 293 292 291 290 289 287 286 285 285 285 284 283 281 279 278 278 277 276 276 275 276 275 275 274 274 274 273 273 272 273 273 273 274 273 273 272
299 298 297 296 295 294 293 293 292 291 290 289 286 285 285 284 283 282 280 279 279 278 277 276 275 275 274 274 274 273 273 272 272 272 271 270 270 270 270 270 269 269 270 269
300 300 299 297 295 293 292 291 290 290 289 286 285 284 284 284 283 281 279 278 278 277 275 274 274 273 272 272 272 271 271 271 270 269 269 268 268 268 268 268 267 267 267 267
298 297 296 295 293 291 290 289 288 286 285 284 283 283 283 282 280 279 278 277 277 277 274 274 273 272 271 270 270 269 269 269 268 267 267 266 266 266 266 266 265 265 265 265
297 295 293 291 290 290 288 286 285 284 283 283 282 281 280 280 279 278 277 275 275 276 274 273 272 271 270 269 269 268 268 267 266 266 265 265 264 264 264 264 263 263 263 263
293 291 290 289 287 286 285 284 283 282 281 281 281 280 279 279 278 277 277 276 274 274 273 272 271 271 270 269 268 268 267 266 265 265 265 264 263 263 263 263 262 262 262 262
290 288 287 286 285 283 282 282 281 281 280 280 279 279 278 277 277 276 276 275 274 273 272 272 271 270 269 269 268 267 266 266 265 264 264 263 263 262 262 262 261 261 261 261
288 286 285 284 284 282 280 280 280 280 279 279 278 278 277 277 276 275 275 274 273 273 272 271 270 269 269 268 267 266 266 265 264 263 263 263 262 261 261 261 261 261 261 261
287 286 283 282 281 280 280 279 278 278 278 278 278 277 277 276 275 274 274 273 273 272 271 270 269 268 267 267 266 266 265 265 264 263 262 262 261 261 261 261 261 260 260 260
285 283 282 282 282 281 280 278 277 277 277 277 277 276 276 275 275 274 273 272 271 270 269 269 268 267 266 266 265 264 264 264 263 263 262 261 261 260 260 260 260 260 260 260
282 281 281 280 280 279 279 278 277 276 275 275 275 275 275 275 274 273 272 271 269 269 268 267 267 266 265 265 264 264 264 263 263 262 262 261 260 260 260 260 260 260 260 260
279 279 278 277 277 277 277 277 276 275 274 274 274 274 274 273 272 271 270 269 268 267 267 266 266 265 265 264 264 263 263 262 262 262 261 260 260 259 259 259 259 259 260 260

GFSNGP_925_thetae_063.txt.gz
Theta_e
315 313 317 319 320 319 320 321 323 322 317 318 317 317 314 311 311 312 314 315 321 322 323 322 319 315 313 313 311 310 309 307 306 305 304 304 305 303 301 299 299 298 298 297
317 316 315 317 316 317 318 317 316 316 316 315 313 311 312 312 314 319 318 318 318 317 318 317 313 312 310 310 309 309 308 306 304 305 305 304 301 299 299 298 296 296 296 296
320 315 316 319 318 317 317 316 318 319 319 313 313 312 313 314 317 316 314 314 313 313 313 311 310 309 308 307 306 306 305 303 303 303 301 300 298 296 296 297 298 299 298 296
319 313 323 319 313 315 317 316 314 312 312 312 312 311 308 308 313 310 309 308 307 306 304 304 304 304 304 303 303 301 299 300 300 298 297 298 298 298 297 298 298 296 294 293
322 320 317 314 314 315 317 317 314 314 312 311 311 311 308 302 302 303 301 300 300 300 300 301 301 301 301 299 298 298 298 298 298 298 298 298 298 298 297 294 293 292 291 291
314 320 323 319 313 310 312 317 313 312 313 313 312 319 315 301 299 298 298 298 298 297 298 298 298 299 299 298 298 299 298 298 299 300 300 298 295 293 292 291 291 290 290 290
314 322 319 314 311 310 319 319 312 312 313 314 313 311 305 298 297 296 296 296 296 296 296 296 297 298 299 299 298 298 298 297 296 293 292 291 291 290 290 290 290 290 290 290
314 318 323 312 309 317 318 310 311 311 312 312 303 300 299 297 296 296 296 295 295 295 295 295 296 296 295 294 293 293 293 291 291 290 290 290 290 290 289 289 289 288 287 287
319 323 316 311 313 310 309 313 311 312 310 305 301 299 297 296 296 295 295 295 294 294 293 292 293 294 292 291 291 291 290 290 289 289 288 286 286 285 285 284 284 285 285 285
318 317 315 314 313 311 310 311 310 310 307 304 302 298 297 296 295 295 295 294 293 292 291 290 290 289 289 290 290 289 287 286 285 284 283 283 283 283 283 283 283 283 283 283
317 315 314 314 313 311 308 307 306 305 304 303 300 297 296 295 296 295 294 292 291 291 290 288 287 286 285 286 286 285 284 283 282 282 281 281 281 281 281 282 281 282 282 282
321 317 317 317 314 308 307 307 305 302 300 299 299 297 296 296 295 293 292 291 291 289 287 285 284 283 282 282 282 283 282 281 280 280 280 280 280 280 280 280 280 280 279 279
316 311 307 305 303 304 304 303 301 301 299 297 296 296 295 294 292 291 290 290 289 285 283 283 282 281 280 280 279 279 279 279 279 279 279 279 278 279 279 278 278 277 277 277
305 306 307 305 306 300 299 298 296 296 295 295 295 294 292 291 290 290 289 287 284 283 282 282 281 279 278 278 278 278 278 276 277 278 277 277 276 276 276 276 276 277 275 275
302 302 303 299 298 296 296 296 296 295 294 294 292 292 290 290 289 287 285 283 282 282 281 280 279 277 277 277 277 277 277 276 276 275 275 274 274 274 274 274 274 274 273 273
299 299 299 298 297 296 296 296 295 294 293 292 291 289 288 287 285 283 282 282 282 281 278 277 276 276 276 276 276 275 275 274 273 274 273 272 272 273 272 272 272 271 271 271
300 299 298 297 296 296 296 295 294 293 291 289 287 286 286 285 283 282 281 280 279 277 276 276 275 275 274 275 274 273 273 273 271 272 271 270 270 270 270 270 270 269 269 268
303 300 299 298 296 294 293 292 291 290 288 286 285 284 284 284 283 280 279 278 277 276 275 274 274 273 273 272 272 271 271 270 270 270 269 268 268 268 267 267 268 267 267 267
298 297 295 294 293 293 292 290 289 287 285 285 285 284 283 282 281 279 278 277 277 276 274 273 273 272 271 270 270 269 269 268 268 268 267 266 266 265 265 265 266 265 265 265
295 293 292 291 291 290 288 287 286 285 284 283 283 282 281 279 278 277 277 277 277 276 274 273 272 271 270 270 269 268 267 267 266 266 266 265 264 264 264 263 263 263 263 263
292 291 290 289 287 286 286 285 284 283 282 282 282 281 279 278 278 276 276 277 275 274 273 272 271 271 270 269 268 268 267 266 265 265 264 263 263 263 262 262 262 262 262 262
289 288 287 286 285 284 283 283 282 281 281 280 280 279 278 277 276 276 276 276 274 273 273 272 271 270 269 269 268 267 266 266 265 264 264 263 262 261 261 261 260 260 260 260
287 286 285 284 283 282 281 280 280 280 279 279 278 278 278 277 276 276 276 274 273 273 272 271 270 269 269 268 267 266 266 265 265 264 263 263 261 260 260 259 259 259 259 259
285 284 283 282 281 281 280 279 278 278 278 278 277 277 277 275 274 274 274 273 273 272 271 270 269 268 268 267 266 265 265 264 264 263 263 262 261 261 260 260 259 259 259 259
283 283 282 282 281 280 279 278 278 277 277 276 276 276 276 275 275 274 273 272 271 270 269 268 268 267 267 266 265 265 264 264 263 263 262 262 261 260 260 259 259 259 259 259
281 281 280 280 280 279 279 278 277 275 275 275 274 275 275 274 274 273 272 270 269 269 268 267 267 266 266 265 265 264 264 263 263 262 261 261 260 260 259 259 259 259 259 259
279 278 278 277 276 276 276 277 276 275 274 274 274 274 273 273 272 271 270 269 268 267 267 266 266 265 265 264 264 263 263 262 261 261 260 260 260 259 259 258 258 259 259 259

GFSNGP_925_thetae_066.txt.gz
Theta_e
318 318 317 318 318 318 320 320 320 322 321 320 321 321 322 320 318 318 319 318 323 328 330 329 329 327 326 320 314 313 311 310 308 306 304 304 303 303 303 303 301 300 300 299
320 318 318 318 318 319 320 320 321 322 321 320 320 320 319 318 318 321 322 322 322 324 327 325 323 321 319 317 313 311 310 307 305 304 304 303 303 301 300 300 298 298 298 298
322 320 320 323 321 320 321 321 322 322 320 320 321 320 319 319 320 321 322 322 322 323 322 320 318 317 316 314 312 310 307 306 305 305 302 300 299 299 298 298 298 298 299 299
323 321 331 320 319 320 321 321 321 321 320 320 319 319 317 316 320 319 318 317 316 316 315 315 314 313 312 311 310 308 306 305 303 301 299 298 298 298 298 298 299 300 298 296
330 324 321 320 316 320 321 321 321 321 320 318 317 316 316 313 316 315 314 313 312 312 312 311 310 309 308 306 304 303 302 300 299 299 299 299 299 299 299 299 297 296 294 294
322 325 334 322 319 319 319 322 320 319 318 318 317 321 319 311 309 309 308 308 308 308 309 308 307 306 305 303 302 301 300 299 300 300 300 299 298 297 295 294 293 293 292 292
325 330 325 321 316 316 321 324 320 319 319 318 319 318 315 309 308 306 306 305 306 306 306 306 305 304 304 303 302 301 300 298 296 296 295 294 294 293 293 293 293 293 292 291
324 332 330 316 314 320 322 321 320 319 319 319 316 311 308 307 305 305 304 303 303 303 304 304 304 303 302 300 299 296 295 294 294 293 292 293 293 292 292 291 289 288 287 287
323 324 323 317 320 318 318 320 318 319 318 318 311 309 307 306 305 304 303 302 302 301 301 300 300 299 298 296 295 294 293 292 291 290 289 288 288 287 287 287 287 287 286 286
322 321 320 320 318 316 316 316 316 316 316 314 311 308 306 305 304 303 301 300 299 298 297 296 296 295 295 293 293 292 291 290 288 286 287 285 285 285 285 285 285 285 285 285
322 321 318 318 319 319 316 315 314 314 314 312 310 307 305 304 303 301 299 298 298 297 295 293 292 290 290 290 290 289 287 286 285 285 284 284 284 283 283 283 282 282 282 281
325 324 322 322 319 319 318 316 314 313 312 310 308 306 304 303 301 299 298 297 296 294 292 290 288 287 286 286 286 286 285 284 283 284 283 283 283 283 281 279 279 278 278 277
321 315 316 313 310 311 316 314 312 311 310 308 306 304 302 301 299 297 296 295 293 291 289 287 285 285 284 283 283 283 283 282 282 282 282 281 281 281 282 281 278 277 277 276
312 312 315 310 314 307 308 307 306 306 305 304 302 301 300 299 295 296 295 293 290 288 286 285 283 282 282 281 281 281 280 279 281 281 280 280 279 279 279 279 279 279 277 275
309 308 310 307 305 305 304 303 303 302 301 301 299 299 297 296 296 294 290 288 287 286 285 283 282 281 280 280 280 280 280 279 279 279 278 277 277 277 278 277 277 277 276 276
307 306 306 306 305 304 304 304 302 301 300 299 297 296 295 294 291 288 286 285 285 284 282 280 280 279 279 279 279 279 278 275 276 277 276 276 276 276 276 275 276 276 275 274
308 307 304 304 303 302 302 301 300 299 297 296 295 293 290 287 285 284 282 281 280 279 278 278 278 277 277 277 277 277 277 276 273 275 275 274 274 274 274 274 274 274 273 272
306 304 304 303 302 299 298 297 295 294 293 290 287 286 286 285 283 282 280 279 278 277 277 276 276 275 274 274 274 274 274 273 273 273 273 273 271 272 272 272 272 272 271 271
303 302 298 298 295 294 292 291 289 288 287 287 287 286 284 283 282 280 279 278 278 277 276 275 274 274 273 272 273 273 272 272 272 272 271 270 271 271 270 270 270 270 269 269
296 294 292 291 290 289 288 287 287 287 286 285 284 283 282 281 280 279 280 280 279 277 275 274 273 273 272 271 271 271 271 271 271 270 270 269 270 269 269 268 267 268 268 268
291 290 289 288 288 288 287 287 286 286 285 284 284 283 281 279 279 278 279 279 276 275 274 273 273 273 272 271 271 271 271 271 270 270 269 269 269 269 268 267 267 267 267 267
289 289 288 288 288 287 286 285 284 283 282 281 280 280 279 278 278 277 277 278 276 274 274 274 273 271 271 270 271 271 270 270 269 269 269 268 268 267 267 266 265 265 265 265
288 287 286 285 285 284 283 282 281 281 281 280 280 280 280 279 279 279 279 275 275 274 274 273 271 270 269 269 270 269 269 268 268 268 267 267 266 266 265 265 264 263 264 264
286 285 285 284 283 283 282 280 279 279 278 278 278 278 279 279 277 276 275 274 273 273 272 271 270 269 268 269 268 268 268 268 267 267 267 265 265 265 264 264 263 262 262 262
285 285 284 283 283 282 281 280 279 279 279 278 277 277 277 276 277 276 275 272 271 271 271 269 268 267 268 268 267 267 267 266 266 265 265 265 264 264 263 263 262 261 260 260
283 283 282 282 282 281 281 280 280 279 279 278 277 276 276 275 274 273 272 271 270 269 269 269 268 267 267 267 266 266 265 265 265 264 263 263 263 263 262 261 260 260 260 259
280 280 280 279 278 278 279 279 278 277 277 277 277 275 275 274 272 272 271 270 269 269 268 268 267 266 265 265 265 265 264 264 263 262 261 261 261 261 260 259 259 258 258 257

GFSNGP_925_thetae_069.txt.gz
Theta_e
319 320 319 319 320 320 321 322 324 322 321 319 320 320 321 322 322 322 321 321 323 326 329 330 332 331 326 320 318 316 315 312 309 308 307 306 305 304 304 304 303 302 301 301
320 319 319 319 318 319 318 318 319 319 319 320 321 320 320 320 321 321 323 323 322 325 330 331 330 329 320 316 314 312 311 309 307 305 304 303 302 302 302 302 301 300 300 300
323 320 320 324 319 319 319 319 320 321 321 320 320 320 320 320 321 322 324 324 324 326 329 327 326 322 318 314 312 310 308 308 307 306 304 302 301 301 300 299 299 299 300 299
329 327 330 321 320 320 320 320 320 320 320 319 320 320 321 321 321 323 323 323 324 325 323 323 322 319 316 313 311 310 309 308 306 304 301 300 299 299 298 299 301 302 302 300
330 329 322 320 320 320 320 320 320 320 320 320 320 320 320 319 320 322 321 321 320 320 319 318 317 316 315 313 311 310 308 306 304 303 301 300 299 300 300 300 302 299 297 296
327 327 329 321 320 320 320 324 321 320 320 320 320 322 318 318 320 318 316 316 316 316 316 314 313 312 311 310 308 306 304 303 301 300 301 302 301 302 300 298 297 295 294 294
328 328 323 320 320 321 324 325 320 321 320 320 320 320 320 317 316 315 314 314 314 314 313 312 310 310 309 307 306 304 303 302 301 301 301 299 298 297 295 295 295 295 294 293
329 333 330 321 318 322 324 323 322 322 321 321 322 319 317 316 314 313 313 311 312 312 311 310 309 308 307 306 304 302 300 299 299 297 296 296 296 295 294 293 292 291 290 289
325 326 324 320 321 320 321 323 323 323 321 321 321 317 315 314 312 312 310 309 309 309 309 308 307 307 305 302 300 299 299 297 295 294 293 292 292 291 290 289 289 289 288 288
323 322 322 322 321 320 321 321 321 321 321 321 320 316 313 312 311 310 309 308 308 307 306 305 303 302 300 299 298 297 295 294 292 291 290 288 288 288 288 288 288 287 287 287
319 318 318 321 321 322 321 320 319 319 318 319 318 314 312 311 310 309 307 306 305 304 302 301 299 298 297 296 295 293 292 290 289 288 288 287 287 286 286 285 283 284 284 283
323 319 323 321 321 321 323 322 320 318 317 317 316 313 312 310 308 307 305 303 302 301 299 297 295 294 293 293 292 290 289 288 287 287 286 286 286 285 283 282 280 278 278 278
321 319 319 319 314 314 317 320 319 318 317 316 314 312 310 309 307 304 303 301 300 297 295 293 291 289 288 288 288 288 287 286 284 285 285 284 284 284 285 281 281 280 279 277
318 316 318 318 318 312 312 314 311 314 314 313 312 309 308 306 302 301 300 299 296 294 291 289 287 285 285 285 284 283 282 283 284 284 283 283 283 282 282 282 282 282 279 278
317 315 315 313 312 310 309 309 310 310 310 309 307 306 304 303 301 300 297 294 292 289 287 285 284 283 283 283 283 283 283 282 282 282 281 279 280 280 280 280 280 280 279 279
314 312 312 313 311 309 309 308 308 307 306 305 305 303 301 300 297 294 292 289 288 286 282 281 281 281 281 281 281 281 278 277 278 279 279 279 279 279 279 279 278 279 278 278
315 314 312 311 310 309 309 307 306 305 303 302 300 299 295 291 288 286 284 282 281 280 280 279 279 279 278 278 279 279 279 278 275 278 277 277 277 277 277 277 277 277 277 276
311 311 310 310 308 306 304 302 301 298 296 290 288 287 286 285 283 281 280 279 279 278 278 277 277 276 276 276 276 276 276 276 276 276 276 276 276 275 275 275 275 275 275 274
305 303 303 301 299 297 293 290 289 288 288 287 286 285 284 283 282 280 280 279 279 278 276 276 275 275 275 273 275 275 275 275 275 275 274 274 274 275 274 274 274 273 273 273
295 292 291 290 290 289 289 288 287 287 286 285 284 283 282 281 281 280 281 281 280 278 276 275 275 275 274 272 273 274 274 274 274 274 274 272 273 274 273 272 272 271 271 271
290 290 290 289 289 289 289 288 288 287 286 285 284 283 282 281 281 280 280 279 277 276 275 275 275 275 274 273 273 274 274 274 274 274 273 273 272 272 272 271 271 270 270 270
291 291 290 289 289 288 287 286 285 284 283 282 281 281 281 281 280 279 280 279 276 276 276 276 275 272 272 271 273 273 273 273 272 272 272 272 271 271 270 270 269 269 268 268
289 288 288 287 286 285 284 284 283 283 283 282 282 282 282 281 281 282 280 277 277 276 276 274 271 270 270 272 272 272 272 271 271 271 270 270 270 269 269 268 268 267 267 267
288 287 286 286 285 284 283 282 281 280 280 280 280 280 281 281 279 278 276 275 275 275 274 272 270 269 269 271 271 271 270 270 270 270 269 269 268 268 268 267 266 266 266 265
287 286 285 285 284 283 282 282 281 281 280 280 279 279 279 278 279 277 276 274 273 274 273 270 269 268 270 270 270 269 269 269 268 267 267 267 267 267 266 266 265 265 264 263
284 284 284 284 284 283 283 282 282 281 281 280 278 278 277 276 276 275 274 273 272 272 271 271 270 269 269 269 268 268 268 267 267 267 266 265 265 265 265 265 264 263 263 262
282 282 281 280 280 280 280 280 279 278 278 279 277 276 276 275 274 273 273 272 271 271 270 270 269 268 267 267 266 267 266 266 265 265 264 264 264 263 263 263 262 261 261 260

GFSNGP_925_thetae_072.txt.gz
Theta_e
321 320 321 321 322 322 322 323 327 328 324 322 322 321 322 322 323 323 322 321 321 323 329 330 331 329 326 324 321 319 316 313 312 313 314 312 310 309 308 307 306 306 305 304
323 320 321 321 322 322 321 320 320 322 322 321 320 320 322 320 320 322 322 324 323 322 330 332 329 323 319 316 314 313 310 308 308 308 307 306 306 305 304 304 304 303 302 301
324 322 320 321 321 320 319 320 320 321 321 321 321 321 321 321 321 321 323 325 324 325 332 330 323 319 316 313 312 311 309 307 306 305 304 303 303 303 303 303 302 301 300 300
326 324 326 321 321 320 320 319 320 320 320 320 320 320 321 322 321 323 324 325 326 329 329 324 320 316 313 311 310 309 308 307 306 304 303 302 302 302 301 300 300 301 301 301
327 327 323 321 321 321 321 321 321 320 320 320 320 322 322 321 321 323 324 324 325 325 325 321 318 315 313 311 310 309 307 305 304 302 301 300 300 299 300 301 302 302 301 298
328 327 327 324 321 321 321 323 321 321 322 322 322 325 323 320 321 322 321 321 322 322 321 320 319 316 314 312 310 308 306 305 303 302 301 300 300 301 301 302 301 297 295 295
326 327 326 321 320 321 324 324 323 322 322 323 322 324 322 321 321 320 319 319 319 318 317 316 315 314 312 310 308 306 304 303 301 302 303 303 302 301 298 296 295 295 294 293
326 327 328 321 321 321 322 324 325 324 323 324 324 322 320 320 318 317 317 316 316 315 314 312 312 311 309 308 306 304 303 303 302 301 299 298 296 295 295 295 293 292 290 290
325 327 326 325 323 322 323 324 325 326 325 324 323 321 319 318 317 316 315 314 314 314 312 311 311 310 308 306 304 303 301 300 297 296 296 296 295 292 291 290 290 290 289 289
317 321 324 324 323 323 321 323 322 323 323 322 323 319 318 316 315 314 313 313 312 311 311 310 309 308 305 302 301 300 298 296 294 292 291 290 290 289 289 289 289 287 287 288
319 318 318 318 319 323 322 323 322 321 320 321 323 319 316 315 313 313 311 311 310 310 309 307 304 302 301 300 299 297 295 292 290 289 289 288 288 287 287 286 285 285 284 283
327 320 322 321 321 319 322 324 324 321 321 319 321 319 315 314 313 311 310 309 308 306 303 300 299 298 297 297 295 293 291 290 289 288 287 287 287 285 283 283 282 281 279 278
321 320 321 321 317 316 317 319 319 321 320 319 318 317 314 313 311 309 307 306 303 301 299 296 295 292 290 290 290 289 287 286 286 286 286 285 285 285 285 282 281 281 280 279
316 320 320 320 319 314 314 313 313 315 315 316 315 313 312 309 306 306 304 302 299 296 294 290 288 286 286 285 286 285 285 285 285 284 284 283 283 283 283 283 283 282 280 279
320 318 317 315 314 312 311 311 312 312 312 311 310 309 305 305 304 302 300 297 294 290 287 285 284 283 283 284 283 283 283 282 282 282 281 280 280 281 281 281 281 280 280 280
318 315 314 314 313 311 310 310 309 308 308 307 306 305 302 297 291 287 288 288 285 283 282 282 281 281 281 282 282 281 279 279 280 280 280 279 279 279 279 279 279 279 279 279
316 315 315 313 311 311 309 308 307 306 305 298 292 290 288 286 285 283 282 282 281 281 281 280 279 279 278 279 280 280 279 278 277 278 278 278 277 278 278 277 277 277 277 277
312 313 313 311 309 306 298 295 294 292 290 288 286 285 284 283 282 281 281 280 279 278 278 277 277 276 276 276 277 277 277 277 277 277 276 277 276 275 275 276 276 276 275 275
302 300 298 297 296 293 291 290 289 288 287 286 285 284 283 282 281 280 279 279 278 278 277 276 276 275 274 275 276 276 276 276 276 276 275 275 275 275 276 275 275 274 273 273
294 293 291 290 290 289 288 287 286 286 285 284 283 282 282 281 281 281 280 280 279 277 276 276 276 275 274 274 275 275 275 275 275 275 275 274 274 274 273 273 273 273 272 271
290 290 290 289 289 288 288 287 286 286 285 284 283 283 282 281 280 280 280 278 277 276 276 276 276 275 274 273 274 275 275 275 274 274 274 274 274 273 273 272 272 271 270 270
290 289 289 288 288 287 286 285 284 283 282 282 282 281 281 281 280 280 279 278 276 277 277 276 273 272 272 272 274 274 273 273 273 272 272 272 272 271 271 270 270 269 269 268
288 287 287 286 285 285 284 284 283 283 283 282 282 282 282 281 281 281 279 278 277 276 275 273 272 271 271 272 272 272 272 271 271 271 271 270 270 270 269 269 269 268 267 267
287 286 286 285 284 283 283 281 281 280 280 280 279 280 281 280 278 277 276 275 275 274 273 271 270 269 270 271 271 271 270 270 270 269 269 268 268 268 268 267 267 267 266 266
286 285 285 284 284 283 282 282 282 281 281 280 279 278 277 277 277 276 274 273 273 273 272 271 270 269 269 270 269 268 268 268 268 267 267 267 266 266 266 266 266 265 265 264
284 284 283 283 283 283 282 282 282 281 279 279 278 277 276 276 275 274 273 273 272 272 271 271 270 269 268 268 267 267 267 267 266 266 265 265 264 264 264 264 263 263 263 262
282 281 280 280 279 279 279 278 278 277 278 277 276 275 275 274 273 273 272 271 271 270 269 269 268 267 267 266 266 266 265 265 265 264 264 263 263 263 262 262 261 261 260 260

GFSNGP_925_thetae_075.txt.gz
Theta_e
320 320 322 321 321 320 319 321 327 324 324 323 319 318 318 319 318 319 319 317 317 321 321 327 325 322 321 319 320 320 319 317 316 318 320 319 317 317 316 314 313 311 309 307
321 321 320 320 320 319 319 320 320 319 323 321 318 316 317 317 320 319 319 321 322 323 329 327 322 318 316 316 316 317 315 312 313 313 313 313 312 310 309 308 307 307 306 305
321 321 321 319 318 320 320 320 319 319 317 317 317 318 318 317 316 317 320 321 322 330 328 323 319 316 313 313 315 314 312 310 310 310 309 308 307 306 306 305 305 304 303 302
321 319 323 320 319 319 319 319 318 318 318 317 316 317 317 316 317 321 321 321 327 325 321 317 315 313 313 312 311 309 308 307 306 305 304 304 304 305 304 303 303 302 301 300
322 323 321 321 319 319 319 318 318 318 318 317 317 318 319 317 317 319 319 320 322 321 318 315 314 313 311 310 309 308 307 305 304 304 303 304 304 303 303 301 301 301 301 301
321 323 323 321 320 318 319 319 319 319 318 318 318 317 316 316 319 319 318 321 321 319 316 315 313 312 311 310 308 307 305 304 303 303 303 302 302 301 300 301 302 300 295 295
317 323 322 321 319 319 320 317 318 320 318 317 318 317 316 317 318 317 317 319 320 318 316 315 313 311 310 309 307 306 304 303 302 302 302 301 300 301 301 301 295 294 293 292
320 323 326 320 319 320 318 318 319 321 320 321 318 317 318 317 316 316 316 316 317 315 314 315 314 311 309 307 306 304 303 303 302 301 302 302 301 299 296 295 295 293 292 290
322 320 319 321 319 320 319 320 321 321 321 320 318 317 317 316 314 313 313 314 314 311 311 312 311 308 306 305 304 303 302 302 301 299 298 296 295 294 294 293 292 290 289 289
316 317 317 321 318 318 319 319 320 319 319 319 318 316 315 313 312 311 311 311 311 310 309 309 309 307 305 304 303 302 299 296 295 294 293 292 291 290 290 289 289 288 288 287
317 314 315 318 316 316 316 317 320 319 319 317 317 315 313 312 310 309 309 309 310 308 303 301 301 302 302 301 300 296 293 292 290 289 289 288 288 288 288 287 287 286 285 285
316 315 316 317 316 317 318 319 319 320 319 317 317 314 312 310 308 307 307 307 302 299 298 295 291 292 295 296 294 290 289 288 288 287 288 286 286 284 284 283 282 282 280 279
316 318 320 318 315 314 316 315 314 315 316 317 315 312 310 309 307 305 301 299 297 292 288 286 286 287 288 290 289 288 287 286 286 285 284 284 285 285 283 282 282 282 282 281
311 316 318 317 314 312 311 311 311 311 310 311 310 308 306 305 302 300 297 293 288 286 285 284 284 284 285 286 286 286 285 285 284 284 284 283 283 283 282 282 282 282 281 281
316 315 315 312 310 309 309 308 308 307 305 304 303 302 301 300 297 293 288 285 284 284 283 283 282 282 283 283 284 284 285 283 282 282 280 280 280 280 280 280 280 280 279 280
314 313 312 311 310 309 307 307 306 302 293 292 291 289 287 286 285 284 284 284 283 282 281 281 281 282 283 284 283 281 280 280 280 279 279 279 279 279 279 278 278 278 278 277
313 312 310 309 307 304 298 296 294 293 291 289 287 286 285 284 283 282 281 281 281 280 280 279 278 279 280 280 280 279 279 278 278 278 278 277 277 277 276 276 276 276 276 275
302 306 307 302 299 295 292 291 289 287 286 285 284 284 283 283 281 280 279 279 278 278 277 277 277 278 278 277 277 277 277 276 276 276 276 276 275 275 275 275 275 275 274 274
295 294 293 293 291 290 289 288 286 286 285 284 283 282 281 280 280 279 279 278 277 277 277 276 276 275 275 275 276 276 275 276 276 275 275 275 275 274 274 274 273 273 273 272
291 290 289 289 288 287 287 285 285 284 283 282 282 282 281 280 279 279 278 278 277 277 276 276 275 274 274 274 275 275 275 275 275 274 274 274 274 274 273 273 272 272 271 270
289 289 288 288 287 286 285 284 284 283 282 282 281 281 280 279 279 278 278 277 276 276 276 275 274 273 272 274 274 274 273 273 273 272 272 272 271 271 271 270 270 269 269 268
288 287 286 285 284 284 283 283 282 282 281 281 281 280 280 279 278 277 276 276 276 275 274 273 272 271 272 272 272 272 271 271 271 270 270 270 269 268 269 269 269 268 268 267
286 285 284 284 283 283 282 282 281 281 280 280 279 279 278 279 278 277 276 275 275 274 272 270 270 270 271 271 270 270 269 269 269 269 268 267 267 267 267 266 266 267 266 266
284 284 283 282 282 282 282 281 280 279 279 278 279 278 277 276 274 274 274 274 272 272 271 270 269 269 269 268 268 267 267 267 267 267 267 266 265 265 265 264 264 264 264 263
284 283 283 282 282 282 281 280 279 278 277 277 276 276 275 275 274 273 272 272 272 271 270 269 269 268 268 267 266 266 266 265 265 265 264 264 264 263 263 263 262 262 261 261
282 282 282 281 281 281 281 280 279 278 277 276 275 274 274 274 272 272 271 271 270 269 268 268 267 266 266 265 265 265 264 264 264 263 263 262 262 262 261 261 261 260 260 259
280 279 278 278 277 277 276 275 276 276 275 273 273 272 272 271 271 270 270 269 268 267 267 266 265 265 264 264 264 263 263 263 262 262 261 261 261 260 260 259 259 258 258 258

GFSNGP_925_thetae_078.txt.gz
Theta_e
317 320 320 320 320 320 320 320 321 320 321 320 320 320 318 315 315 316 315 315 317 318 321 325 324 325 326 327 328 328 328 326 322 322 322 321 320 321 321 320 319 318 315 313
321 321 321 321 320 320 319 318 318 321 321 319 319 316 316 316 316 316 316 317 317 317 326 324 320 318 318 317 317 322 322 320 318 317 317 316 317 316 316 315 312 311 309 309
320 320 321 321 320 321 320 318 318 319 317 317 318 316 313 313 315 316 316 317 322 323 325 322 318 316 315 315 316 316 314 313 314 313 313 313 313 312 310 309 308 307 306 305
318 318 325 320 318 319 320 318 317 316 316 315 315 314 313 313 314 315 316 321 326 323 317 315 314 313 313 314 314 312 312 311 311 312 311 309 308 307 307 307 306 305 304 302
320 320 321 320 319 318 319 318 316 316 315 316 316 316 317 316 316 316 317 322 321 319 315 313 312 311 311 311 311 310 308 308 308 307 306 305 305 305 305 304 303 302 301 300
317 321 319 318 318 317 318 319 317 316 316 317 315 316 315 316 317 318 319 321 318 316 314 314 312 312 310 309 309 307 306 306 306 306 306 304 304 304 303 303 301 300 299 299
315 321 320 319 318 317 322 317 316 317 317 316 315 314 314 315 318 318 319 319 317 315 313 312 312 312 309 308 307 306 305 305 304 303 303 303 303 302 301 300 300 300 298 293
319 321 323 318 320 319 317 316 318 319 319 319 316 315 315 317 316 317 316 316 316 314 312 311 311 310 308 307 305 304 303 302 302 302 302 302 301 300 300 298 295 293 291 289
317 318 318 316 320 319 317 319 319 320 320 319 316 317 317 316 315 314 313 311 312 312 310 311 310 309 305 304 304 303 303 301 301 301 300 300 300 299 295 293 291 290 289 286
318 318 318 316 314 317 315 317 317 317 319 317 317 316 314 312 311 311 310 309 309 309 307 306 307 306 305 304 304 302 299 296 295 295 293 293 293 293 291 290 289 289 287 285
315 314 314 314 313 314 316 316 320 319 317 317 315 314 312 311 310 309 308 308 305 302 299 298 302 301 301 300 301 293 290 289 289 289 289 288 287 286 286 286 287 287 286 285
313 313 313 314 312 313 316 317 318 318 317 316 315 313 311 309 308 307 302 299 292 291 290 290 290 291 292 292 291 289 287 287 287 286 285 285 284 283 283 282 282 282 281 281
314 313 312 314 314 314 314 313 313 313 313 316 313 310 309 305 302 298 292 290 288 287 287 286 287 287 288 289 289 287 285 285 285 285 285 285 284 285 285 284 283 283 283 282
310 315 317 314 314 311 310 309 306 304 304 306 306 304 301 297 292 289 287 286 286 285 284 284 284 284 285 287 288 286 284 284 285 284 284 284 283 282 282 282 282 281 281 281
314 314 314 310 309 308 306 304 299 296 295 294 299 297 291 288 287 286 285 284 284 283 283 283 283 283 286 286 286 286 285 283 283 282 281 280 280 280 280 280 280 279 279 279
312 310 310 309 308 306 302 298 296 293 290 289 287 286 285 285 284 283 283 283 283 281 280 281 281 281 283 284 283 282 281 280 280 280 279 279 278 278 278 277 277 277 276 277
310 309 308 305 301 297 295 293 292 290 288 287 286 285 284 283 282 280 279 279 279 278 279 279 279 280 280 280 280 279 278 278 278 277 277 277 276 276 275 275 275 275 275 275
303 303 302 298 295 292 290 288 287 286 285 284 283 282 282 281 280 279 278 278 278 277 277 277 277 277 277 277 276 276 276 276 276 276 275 275 275 274 274 274 273 273 273 273
295 295 294 292 290 288 287 286 285 284 283 282 281 281 280 280 279 278 278 277 277 277 275 275 274 275 275 275 275 275 275 275 275 274 274 273 273 273 273 272 272 271 271 270
290 289 288 288 287 286 285 284 283 283 282 281 281 280 279 279 278 278 277 277 276 276 275 273 273 274 274 274 274 274 273 272 272 272 271 271 271 270 270 270 269 269 269 269
288 287 286 285 284 284 284 283 282 282 281 281 280 279 278 278 277 277 276 275 273 273 273 272 272 273 273 272 272 271 271 270 270 269 269 268 268 268 267 267 267 267 267 267
285 285 284 284 283 283 282 282 281 281 280 280 279 278 277 277 276 275 275 273 272 272 271 271 271 271 271 270 270 269 268 268 268 267 267 267 266 266 265 265 265 265 265 265
284 284 283 282 282 281 280 280 280 279 279 278 279 278 277 277 276 275 273 271 270 270 269 269 269 269 268 267 267 267 267 266 266 266 265 265 264 264 264 264 263 263 262 262
283 283 282 282 281 281 280 279 279 278 278 277 276 275 274 273 272 272 271 270 270 269 269 268 268 267 267 266 266 265 265 264 264 264 263 263 263 262 262 262 261 261 260 260
283 282 282 281 281 280 279 278 277 277 276 275 274 274 273 272 272 271 270 269 269 268 267 267 266 266 265 265 264 264 263 263 263 263 262 261 261 261 261 260 260 259 259 259
281 280 280 281 280 279 278 277 276 275 274 273 272 272 271 271 270 270 269 268 268 267 266 265 265 264 264 263 263 263 263 262 262 261 261 260 260 260 259 259 259 258 258 257
278 278 277 276 276 276 276 275 274 273 272 271 270 270 270 270 269 268 267 266 266 265 265 264 263 263 262 262 262 262 261 261 261 260 260 260 259 259 258 258 258 257 257 256

GFSNGP_925_thetae_081.txt.gz
Theta_e
318 315 319 319 319 319 320 318 320 319 321 320 318 317 317 317 315 313 313 314 315 316 316 317 320 323 324 324 324 323 323 324 325 325 325 325 325 325 324 324 323 319 320 317
319 315 316 319 321 321 320 319 318 318 318 317 316 315 316 315 313 314 314 313 315 316 316 322 322 322 322 322 322 324 322 320 322 321 320 320 320 320 319 318 317 316 313 313
319 319 321 322 320 320 320 318 317 319 318 318 317 316 316 315 313 313 313 312 313 316 318 322 319 319 319 317 317 318 317 316 315 315 316 316 317 316 315 314 313 312 311 310
315 316 325 320 318 318 319 319 318 316 316 316 315 315 314 311 312 313 312 313 316 319 317 316 316 315 314 315 316 316 314 313 313 314 313 312 312 312 311 309 308 307 305 305
320 318 317 319 318 318 320 319 318 315 315 314 313 315 315 312 309 311 312 314 319 318 316 315 314 313 313 314 314 313 311 312 312 311 310 309 308 307 305 305 304 303 304 303
318 323 318 315 316 316 317 321 317 316 315 315 315 316 314 314 315 314 317 319 315 313 312 312 312 313 313 311 311 310 310 309 308 308 308 306 305 304 303 303 302 302 300 300
319 322 317 315 318 318 323 319 317 317 316 315 315 315 313 313 317 317 319 316 314 313 312 311 310 310 310 309 309 308 308 307 306 306 305 305 303 302 301 301 300 298 296 293
318 320 319 316 320 320 317 315 316 317 316 315 313 314 314 314 317 318 316 315 313 312 310 310 310 310 308 306 305 305 305 304 303 302 302 301 301 300 300 299 297 294 291 288
317 317 315 315 318 318 317 317 317 318 319 317 316 316 315 316 316 316 315 313 312 310 309 309 309 309 305 304 304 303 302 300 300 300 299 299 299 298 296 294 292 287 286 284
316 315 315 315 315 315 317 317 316 317 317 316 316 314 313 314 313 311 310 310 309 308 306 305 305 304 303 303 301 301 298 295 295 295 294 294 293 292 291 290 289 288 287 285
315 314 313 313 312 313 314 315 316 317 317 317 316 316 313 312 310 308 305 303 301 300 300 301 300 299 298 298 301 296 294 292 291 291 289 287 286 286 286 286 288 288 286 285
314 313 312 311 311 312 313 315 316 316 316 316 315 311 309 307 305 300 296 294 293 292 291 290 291 290 291 291 292 289 287 286 285 285 284 283 283 283 283 283 282 282 282 282
310 309 309 310 313 313 313 312 310 310 312 314 310 309 305 296 293 291 290 289 288 288 287 287 287 286 287 287 287 286 285 285 285 286 286 285 285 285 284 283 283 283 283 282
308 308 312 313 314 312 308 303 300 302 302 302 300 297 293 291 289 288 287 286 286 285 285 285 285 285 286 287 288 287 287 287 285 284 284 283 282 282 282 281 281 281 280 280
308 307 308 310 308 305 302 299 296 293 291 291 291 290 288 287 286 285 285 285 284 284 284 284 283 283 286 287 286 284 283 282 282 281 280 280 279 279 279 279 279 278 278 278
304 306 308 307 304 301 298 296 293 290 288 287 286 286 285 284 283 283 283 283 282 281 281 280 280 281 283 283 282 280 280 279 279 278 278 277 277 276 276 276 276 276 275 276
308 308 305 303 300 297 294 292 289 288 287 286 285 284 283 282 281 280 279 278 278 278 278 278 278 279 279 279 278 277 277 277 276 276 275 275 274 274 274 274 273 273 273 273
298 300 298 296 292 290 289 288 287 286 285 284 282 281 281 280 279 278 277 276 276 276 276 276 276 276 276 276 276 276 275 275 274 274 273 273 273 273 272 272 271 271 270 270
293 292 291 289 288 287 286 285 284 283 282 282 281 279 279 278 278 277 277 276 275 274 274 275 275 275 275 275 274 274 273 273 272 271 271 270 270 270 269 269 269 269 268 268
289 288 287 287 286 285 284 283 283 282 281 280 280 279 278 277 276 275 274 274 273 273 273 273 273 273 272 272 272 271 271 270 269 269 268 268 268 267 267 267 266 266 266 266
286 286 286 285 284 283 283 282 282 281 280 279 278 277 277 276 275 274 274 273 272 272 272 272 272 271 270 270 270 269 268 268 267 267 266 266 266 265 265 265 264 265 264 264
284 284 284 283 283 282 281 281 280 279 278 277 277 276 275 274 273 272 271 271 270 271 270 270 269 269 268 268 268 267 267 266 266 265 265 264 264 264 263 263 263 262 262 262
283 282 282 281 281 280 279 279 279 278 278 277 277 277 276 275 273 272 270 269 269 268 268 267 267 267 266 266 265 265 265 264 264 264 263 263 262 262 262 261 261 260 260 260
282 282 281 281 280 280 279 278 277 276 275 274 274 273 272 271 270 269 269 269 268 268 267 266 266 265 265 265 264 264 263 263 262 262 262 261 261 261 260 260 259 259 258 258
282 281 280 280 279 278 277 276 276 275 274 273 272 272 271 271 270 268 268 268 267 266 265 265 264 264 264 263 263 263 262 262 261 261 260 260 260 259 259 259 258 258 257 257
281 280 280 279 278 277 276 275 274 273 272 271 270 269 270 270 269 268 267 266 265 265 264 264 263 263 262 262 262 262 261 261 260 260 260 259 259 259 258 258 258 257 257 256
278 277 277 276 275 275 274 273 273 272 271 270 268 268 268 268 267 266 266 265 264 264 263 263 262 262 262 262 261 261 261 260 260 259 259 259 258 258 258 258 257 257 256 256

GFSNGP_925_thetae_084.txt.gz
Theta_e
317 319 319 319 318 315 317 317 319 318 318 317 317 317 316 315 315 313 310 313 316 319 318 318 320 321 320 320 319 317 317 317 318 318 320 321 322 323 323 323 323 322 321 321
316 313 317 318 317 317 317 317 317 316 316 315 315 315 315 315 315 313 312 310 313 315 316 316 318 319 321 321 321 320 319 319 319 320 322 323 322 321 322 322 322 321 320 319
314 313 316 318 315 318 318 317 317 319 316 314 315 314 314 315 313 313 313 311 311 314 314 315 317 318 318 317 318 321 320 319 318 318 318 319 319 320 321 321 319 317 315 314
316 317 324 319 315 315 317 317 315 316 315 314 314 314 314 313 314 313 312 311 310 311 315 316 318 317 315 316 316 317 316 315 315 316 317 317 317 316 315 313 311 309 308 306
317 318 319 317 317 318 318 318 316 316 315 315 315 312 311 310 310 313 312 312 310 314 316 314 314 314 314 314 314 314 313 313 314 314 314 312 310 308 306 305 304 303 303 303
316 319 319 317 314 316 317 319 316 315 315 315 313 313 312 311 310 308 310 314 314 315 315 314 313 314 313 311 311 309 309 309 309 308 307 306 305 304 303 303 301 301 299 299
316 319 318 317 316 315 320 317 316 316 314 315 314 313 313 312 316 316 315 312 312 313 312 312 312 313 311 310 307 307 308 307 306 306 305 304 302 302 301 300 298 296 295 292
317 318 318 314 315 321 317 315 316 317 316 317 314 313 312 314 318 316 313 312 311 310 309 310 311 310 307 305 304 304 304 303 302 302 301 301 301 299 298 297 294 290 289 287
314 316 314 312 313 312 315 318 316 317 316 317 316 314 314 316 316 315 314 312 310 309 308 307 308 308 303 302 304 303 302 300 300 299 299 298 298 297 296 295 292 288 287 284
313 311 311 311 310 312 313 316 318 314 316 316 315 314 314 313 312 312 311 309 309 307 305 303 303 303 303 303 304 302 297 294 294 293 292 292 291 291 290 289 288 287 285 284
311 312 313 313 312 312 311 312 315 315 315 316 315 313 312 309 304 301 301 301 302 301 300 298 296 296 298 297 297 292 290 288 287 286 285 284 284 285 286 287 288 287 286 285
309 309 310 309 308 309 311 311 313 316 316 314 311 308 301 298 297 296 295 293 292 290 289 288 288 288 290 290 291 288 286 285 285 284 285 286 285 284 284 284 284 284 284 284
309 308 307 308 308 309 310 304 305 304 306 310 307 301 296 293 291 290 289 289 289 288 287 287 286 286 286 287 287 286 286 286 286 286 285 285 284 284 283 282 282 281 281 281
306 308 309 307 311 306 302 302 300 296 295 295 294 292 291 289 288 288 287 287 287 286 286 285 285 285 285 287 287 286 285 284 283 282 281 281 280 280 280 280 279 279 279 279
308 307 307 306 305 301 299 296 294 292 291 290 289 289 288 288 287 286 285 285 285 284 283 283 282 281 284 285 284 282 281 280 280 279 279 278 277 277 277 277 276 276 276 276
304 304 305 306 301 299 296 294 292 289 288 287 286 285 284 284 283 282 282 283 282 281 280 279 279 280 281 282 280 279 278 278 277 276 275 275 275 274 274 274 273 273 272 272
303 307 304 302 298 294 291 290 288 287 286 285 284 283 282 281 280 279 278 278 278 277 277 278 277 278 278 278 277 276 275 275 275 274 274 273 272 272 272 271 271 270 270 270
296 296 298 298 291 290 288 288 287 285 285 283 282 280 279 278 277 277 276 276 276 276 276 276 276 276 276 276 275 275 274 273 272 271 271 270 270 269 269 269 268 268 268 268
291 290 290 289 288 287 285 284 283 282 281 280 280 279 278 277 276 275 275 275 275 275 274 274 274 274 274 274 273 273 272 271 269 269 268 268 267 267 267 266 266 266 266 266
288 288 287 286 285 284 283 282 281 281 280 279 278 277 275 275 274 274 274 274 274 274 273 272 272 271 271 271 270 270 269 268 267 267 266 266 265 265 265 264 264 264 264 264
286 285 285 284 283 283 282 281 280 279 278 277 276 275 274 274 273 273 273 272 271 271 270 270 270 269 269 268 268 267 267 266 266 265 264 264 264 263 263 263 262 262 262 261
284 283 283 282 282 281 280 279 278 277 276 275 274 273 272 272 271 271 271 270 269 269 269 268 268 267 267 267 266 266 265 264 264 264 263 263 262 262 261 261 261 260 260 260
282 282 281 280 280 279 278 278 277 277 276 275 275 274 273 272 271 270 269 268 267 267 267 266 266 266 266 265 265 264 264 263 263 262 262 261 261 260 260 260 259 259 259 258
281 280 280 279 278 277 277 276 275 274 274 273 272 272 271 269 268 268 267 267 267 266 266 265 265 265 264 264 263 263 262 262 261 261 261 260 260 259 259 259 259 258 258 258
280 279 279 278 277 277 276 275 274 273 273 272 271 271 270 269 268 267 266 266 265 265 264 264 264 263 263 263 262 262 261 261 261 260 260 259 259 259 258 258 258 258 258 258
279 278 278 277 277 276 275 274 273 272 270 269 268 268 267 267 267 266 265 265 264 264 263 263 263 262 262 262 261 261 261 260 260 259 259 259 258 258 258 258 259 258 258 257
277 276 275 274 274 274 273 272 271 270 269 268 267 266 267 266 266 265 264 264 263 263 262 262 262 261 261 261 261 260 260 260 259 259 259 258 258 258 259 259 258 258 257 257

GFSNGP_925_thetae_087.txt.gz
Theta_e
314 313 314 316 315 317 320 321 319 317 318 319 319 321 321 320 318 317 317 315 318 323 323 323 322 322 322 321 319 318 317 317 317 316 316 317 317 317 318 319 320 321 321 321
313 314 315 314 314 315 319 319 319 317 317 318 319 318 317 318 318 318 318 317 315 318 321 322 322 321 321 320 319 318 318 317 317 317 317 318 319 319 320 320 321 321 322 322
314 313 314 315 315 317 318 319 318 319 319 317 317 317 317 318 318 317 318 317 316 315 317 320 320 320 320 319 319 318 318 317 316 316 317 317 318 319 320 320 321 320 319 317
311 312 314 311 314 317 318 318 317 318 317 317 318 318 317 316 317 317 316 317 316 315 315 316 317 317 317 316 316 316 316 315 317 318 317 318 318 317 316 314 312 310 309 308
311 312 313 310 317 317 320 321 318 317 317 317 317 315 317 315 314 315 316 316 316 313 316 315 316 316 316 315 315 316 315 315 315 315 314 313 311 309 307 307 304 303 301 301
311 314 316 314 318 316 317 322 318 319 318 318 317 320 319 316 313 313 311 314 316 316 315 315 315 315 315 313 311 309 310 310 310 310 309 307 305 304 303 302 300 299 297 296
309 309 311 316 316 318 320 319 315 315 318 319 318 317 316 314 318 315 315 316 316 315 315 314 314 313 311 309 306 306 307 307 307 306 305 304 303 302 301 298 297 294 292 291
311 312 315 314 316 317 316 314 314 315 317 319 319 317 315 319 317 314 312 312 312 312 312 312 311 309 306 304 304 304 304 302 301 301 300 300 300 296 296 294 292 288 287 285
314 315 314 312 314 314 314 314 314 314 316 317 318 316 317 314 314 313 311 310 311 310 309 307 306 306 304 302 301 301 299 296 295 295 294 294 293 292 290 289 287 286 284 283
312 311 312 312 311 311 312 313 313 313 316 317 317 315 315 313 311 310 310 307 305 304 303 302 302 302 301 299 298 295 292 290 289 289 289 289 289 289 288 287 286 286 285 283
309 310 310 310 312 310 309 310 312 312 315 316 314 310 306 304 302 301 301 301 299 296 294 294 293 294 294 293 292 290 288 286 286 286 286 285 285 285 286 286 287 285 284 284
311 309 309 309 309 309 309 311 309 313 316 314 312 305 300 298 297 297 295 293 293 292 291 290 290 290 290 290 289 288 286 286 286 286 285 284 284 283 282 282 282 282 282 282
308 309 310 309 308 309 311 306 303 304 313 306 302 299 296 294 292 291 290 290 289 289 288 288 287 287 287 288 289 287 286 285 284 284 284 284 284 283 282 280 279 279 280 280
306 307 309 308 308 308 306 299 297 296 297 297 295 293 292 291 290 289 288 287 286 286 285 285 284 284 284 285 286 284 283 282 282 282 282 282 282 281 281 281 280 278 276 276
306 307 308 307 306 304 300 297 296 293 292 292 291 291 289 288 287 286 285 284 283 283 282 282 282 281 283 284 283 281 280 279 278 278 278 278 278 277 277 276 276 275 274 273
305 305 305 306 307 302 298 296 294 291 290 289 288 286 284 283 282 281 281 282 281 280 279 279 279 279 280 281 279 277 276 276 276 276 275 275 275 275 274 274 273 272 271 271
304 307 306 305 301 296 294 292 291 289 288 286 284 283 282 280 279 279 278 277 277 277 277 277 277 277 278 277 276 276 275 274 274 274 273 273 272 272 272 271 271 270 269 267
296 295 295 296 298 292 290 289 288 287 286 283 281 280 280 279 278 277 277 276 276 275 275 275 275 275 275 275 274 274 273 272 272 271 270 270 269 269 269 268 268 268 267 266
292 291 290 291 291 289 287 286 284 282 280 279 279 278 277 277 277 276 275 275 274 274 273 273 273 273 273 272 272 271 270 269 269 268 267 267 267 266 266 266 265 265 264 264
289 288 287 286 285 285 283 282 281 280 278 277 276 276 276 275 275 274 274 274 273 273 272 271 271 270 270 270 270 268 268 267 266 266 265 265 264 264 264 263 263 263 262 262
286 285 285 284 283 282 281 280 279 278 277 276 276 275 274 274 274 273 273 272 271 270 270 269 269 268 268 268 267 266 266 265 264 264 264 263 263 262 262 262 261 261 261 260
283 282 282 281 280 280 279 278 277 276 275 274 274 273 272 272 271 270 270 270 269 268 268 267 267 267 266 266 265 265 264 263 263 263 262 262 262 261 260 260 260 259 259 259
281 280 280 279 278 277 276 276 275 274 274 274 274 273 273 272 271 270 269 267 267 267 266 266 266 266 265 265 264 264 263 263 262 262 261 261 260 260 259 259 259 259 259 259
279 279 278 277 277 276 275 274 273 273 272 271 271 270 270 269 267 267 266 266 266 266 265 265 265 265 265 264 263 263 262 262 262 261 260 260 260 259 259 260 259 259 259 258
279 278 277 277 276 275 274 274 273 272 271 271 270 269 269 268 267 266 265 265 265 264 264 264 264 263 263 263 262 262 262 261 260 260 260 259 259 259 259 259 259 258 258 258
278 277 277 276 276 275 274 273 272 270 269 268 267 266 266 265 265 265 264 264 264 263 263 263 263 263 262 262 262 261 261 260 260 260 259 259 260 259 259 259 258 258 258 258
276 275 274 274 273 273 272 271 271 270 269 267 266 266 265 265 264 264 263 263 263 263 262 262 262 262 261 261 261 260 260 260 260 259 259 259 259 259 259 258 258 258 258 258

GFSNGP_925_thetae_090.txt.gz
Theta_e
311 311 311 312 312 314 316 317 321 321 321 319 318 318 318 319 321 322 321 320 326 327 328 329 328 328 327 326 325 324 322 321 321 321 320 320 320 320 319 318 318 319 320 321
312 312 312 311 311 311 313 315 316 318 320 319 319 318 318 319 321 322 322 322 322 322 326 328 328 328 327 326 326 324 324 323 322 321 320 320 320 320 320 320 321 321 322 323
310 311 312 313 313 312 312 314 317 321 320 319 319 318 318 319 321 321 322 321 321 322 321 325 326 326 327 326 325 324 324 323 322 322 321 321 321 321 321 322 322 322 321 320
310 309 309 307 311 313 313 316 318 321 320 319 319 319 319 320 320 321 320 320 320 321 322 320 323 325 325 325 324 323 323 322 322 321 321 320 320 319 318 316 314 311 309 308
312 310 308 308 312 310 317 316 321 321 321 322 319 319 320 320 319 319 319 319 320 319 320 321 321 323 323 323 323 323 321 318 318 318 316 315 313 311 308 308 305 303 301 300
309 311 311 315 313 317 317 318 319 319 320 320 322 325 321 319 319 319 319 318 318 318 319 320 321 321 321 320 319 315 313 313 314 314 312 309 306 304 301 301 296 294 292 291
310 311 310 308 309 315 319 318 315 317 317 318 319 321 322 320 321 318 319 320 319 319 320 320 320 319 317 312 309 307 307 306 306 305 304 302 300 299 296 293 291 289 288 287
311 313 312 311 314 317 315 314 314 315 315 316 317 319 320 321 319 315 315 317 317 317 316 317 316 312 308 305 304 302 301 300 299 298 297 296 294 291 290 289 287 285 285 284
312 312 311 313 311 311 313 314 313 313 314 315 315 317 319 316 315 313 312 312 313 311 309 309 309 306 303 300 298 297 295 294 292 292 292 292 291 289 288 287 286 285 285 284
310 309 309 309 310 311 313 312 310 312 315 316 316 317 315 313 313 311 309 308 306 302 302 302 302 301 300 299 297 294 292 291 290 289 288 288 288 288 288 287 286 286 285 284
309 308 309 309 309 309 310 310 311 312 312 316 317 313 311 307 306 307 304 301 299 297 297 297 297 297 297 297 295 291 289 289 288 287 286 285 284 284 284 286 286 286 287 287
311 309 309 309 309 311 310 311 311 309 311 317 318 311 302 299 299 298 297 296 295 296 296 296 296 296 295 293 292 291 290 289 287 286 285 284 283 282 281 281 282 282 282 282
310 309 310 310 310 310 311 310 305 306 310 312 306 302 299 295 292 291 291 291 291 290 290 290 290 290 291 290 289 288 287 286 286 286 285 284 283 282 280 279 279 279 278 278
308 308 309 309 309 309 309 304 301 299 300 299 297 296 294 293 292 291 288 287 287 286 285 285 285 284 285 285 286 285 284 284 285 285 286 285 285 285 284 282 280 277 275 276
308 308 309 308 309 309 306 303 301 300 298 296 292 291 290 288 286 285 284 284 284 283 283 283 282 282 283 283 283 282 282 282 282 282 282 282 281 281 280 279 279 278 277 275
306 307 308 309 309 307 305 302 301 297 296 293 290 287 285 284 283 282 282 282 281 280 280 279 279 280 281 281 280 279 279 280 280 279 279 279 279 279 278 277 276 275 273 272
304 305 305 305 307 305 302 300 299 297 293 290 287 284 283 281 280 279 278 278 278 278 278 278 278 279 279 279 279 278 278 277 277 277 277 277 276 275 275 275 274 272 269 268
299 299 298 298 300 302 299 296 294 293 290 286 284 282 281 280 278 277 277 276 276 276 276 276 276 277 277 277 276 276 275 275 274 274 273 273 273 272 272 272 271 271 270 267
294 294 293 292 294 296 294 292 290 286 283 282 281 280 279 278 277 277 276 276 276 275 275 275 275 275 274 274 274 274 273 272 272 271 271 270 271 270 270 270 269 269 268 268
291 289 288 288 288 288 286 283 283 282 281 279 278 278 278 277 276 275 275 274 274 273 273 272 272 271 271 271 271 272 271 271 270 270 270 270 269 268 267 267 267 267 267 266
286 286 285 284 283 282 281 281 279 279 278 278 277 276 275 275 275 275 274 273 272 272 271 271 271 270 270 270 270 270 269 269 269 269 268 268 268 267 267 267 266 266 265 265
284 283 282 281 280 279 278 278 277 276 275 275 274 273 272 272 272 272 272 272 271 270 270 269 268 268 268 268 268 268 268 268 268 267 267 267 267 266 266 265 265 264 264 264
282 281 280 279 278 277 276 276 275 275 275 275 275 275 274 273 274 273 271 269 269 268 268 266 265 266 266 267 267 267 266 266 266 266 265 265 265 265 264 263 264 263 263 262
280 279 278 277 277 276 276 274 273 273 272 271 271 271 270 269 269 268 267 267 267 267 266 265 265 265 266 266 265 265 265 265 265 264 263 263 263 263 263 262 262 261 261 260
279 278 278 277 277 276 275 274 273 272 271 270 270 270 269 269 268 267 267 266 266 265 264 264 264 264 265 265 264 264 264 264 264 264 263 263 262 262 262 261 260 260 259 260
279 278 277 277 276 275 274 273 272 271 270 269 268 268 267 267 266 266 265 265 265 265 264 264 264 264 264 264 263 263 263 262 263 262 261 261 261 261 260 259 259 259 259 258
276 276 275 275 274 274 273 272 272 271 270 269 268 268 267 266 265 265 265 265 265 264 264 264 263 263 263 263 263 262 262 261 261 261 260 260 260 260 259 259 259 258 258 257

GFSNGP_925_thetae_093.txt.gz
Theta_e
309 309 310 312 313 314 316 317 320 320 320 320 321 320 319 320 320 320 322 322 324 328 330 331 330 330 330 329 327 325 324 324 324 325 325 325 325 325 324 324 324 323 323 323
309 310 310 310 309 310 310 312 315 317 317 317 317 318 319 319 319 319 320 321 323 324 327 329 330 330 330 329 329 328 326 325 324 324 324 324 324 324 324 323 323 322 322 321
311 309 310 313 312 311 311 310 312 315 316 316 319 319 320 319 318 318 319 321 322 323 324 325 328 329 330 329 329 329 327 326 325 324 324 324 323 323 322 323 322 319 318 319
313 311 311 309 309 310 311 314 313 311 314 320 319 319 319 319 319 319 320 322 322 322 322 322 323 327 329 329 329 328 328 327 326 325 324 324 323 323 318 318 316 313 309 308
314 312 310 310 312 317 313 313 321 321 320 320 320 322 323 320 320 322 322 322 321 320 320 321 322 324 328 329 328 328 327 327 326 325 325 320 317 315 311 312 305 301 297 296
312 312 313 316 312 311 314 318 317 317 319 320 320 323 324 322 323 323 322 322 322 321 320 321 324 324 326 327 327 326 326 323 321 317 316 310 307 304 301 299 294 292 289 289
313 312 311 311 310 310 317 320 315 315 315 317 319 318 319 318 320 322 321 320 320 321 321 322 323 324 325 324 315 310 310 309 306 305 303 300 297 294 292 289 288 287 286 286
311 313 313 310 314 315 315 313 314 315 314 314 316 317 317 316 320 318 316 317 319 321 322 322 322 317 310 306 303 302 300 299 297 296 294 294 292 290 289 288 286 285 285 284
312 312 311 313 313 312 312 312 313 313 312 314 314 316 317 315 319 314 313 313 313 314 313 311 309 305 301 298 297 296 294 293 293 292 291 291 289 288 288 287 287 286 285 284
311 311 311 311 310 310 310 311 312 311 313 312 312 316 317 317 316 312 308 307 306 306 304 304 302 300 298 296 294 293 292 290 290 289 288 288 288 288 288 287 286 286 285 285
310 310 310 310 310 310 310 311 311 312 310 312 315 318 315 310 305 302 301 300 300 300 300 300 298 297 295 294 292 291 290 289 288 286 285 284 284 285 285 287 287 287 286 285
312 310 311 311 310 311 311 311 311 309 309 315 312 311 306 302 299 295 294 295 297 297 298 299 299 297 296 295 293 291 290 288 286 285 284 283 283 282 282 282 282 282 281 280
310 310 310 310 311 311 310 311 308 307 309 310 303 301 298 296 292 290 288 288 288 288 288 290 291 291 294 294 292 290 288 287 286 285 284 283 282 281 280 279 278 278 277 277
309 309 309 309 310 310 310 310 305 303 302 299 298 295 294 293 290 289 288 287 287 285 284 284 284 285 286 286 287 287 287 287 287 286 286 285 283 282 281 280 278 276 275 275
309 310 310 310 310 310 310 307 307 304 302 297 294 292 290 288 287 285 285 284 283 282 282 282 282 282 284 284 284 285 285 285 284 284 284 284 283 283 282 281 279 278 277 275
308 308 308 309 309 309 308 307 306 304 301 296 291 288 286 283 282 281 281 282 282 281 281 281 281 281 282 282 281 281 281 281 281 282 281 281 280 280 280 278 277 275 273 273
305 306 305 305 305 305 305 306 304 303 300 294 288 285 283 281 280 279 279 279 279 279 279 280 280 280 281 281 280 280 279 279 279 279 279 279 278 278 277 276 275 272 270 270
300 300 301 301 300 300 301 303 300 298 295 289 285 282 281 280 279 278 277 277 278 278 278 278 279 279 279 279 279 279 278 278 277 277 277 277 276 276 275 275 274 273 271 269
296 295 294 294 293 295 294 292 290 287 285 284 281 280 279 278 278 278 278 278 278 278 277 277 277 277 277 277 277 276 276 275 275 274 274 274 274 274 273 273 272 272 271 271
291 290 289 288 287 288 286 285 284 283 281 280 279 278 278 277 276 276 276 276 276 276 275 275 274 274 274 275 275 275 274 274 274 274 273 273 272 271 270 270 271 271 270 270
286 286 285 284 283 282 282 281 281 280 279 278 276 276 276 275 275 275 275 274 274 274 273 273 273 273 273 274 274 274 273 273 273 272 272 272 272 271 271 270 270 270 269 269
285 284 282 281 281 279 279 278 277 276 275 274 274 274 273 273 273 273 273 273 273 272 272 271 271 271 271 272 272 272 272 272 272 271 271 271 271 270 269 269 269 268 268 267
283 282 281 280 279 278 277 277 276 276 276 276 276 276 276 274 273 273 272 271 270 269 269 269 269 270 270 271 271 270 270 270 270 270 269 269 269 268 268 267 267 267 266 266
281 280 279 278 278 277 277 275 275 274 273 273 273 272 272 270 269 269 269 269 268 268 268 268 268 268 269 269 270 269 269 269 268 267 267 267 267 267 266 265 265 266 265 264
280 279 279 278 278 277 275 275 274 273 273 272 271 271 270 270 269 269 268 267 267 267 267 266 267 268 268 268 268 268 268 268 268 267 267 266 266 266 266 265 264 263 263 263
280 280 279 278 277 276 276 275 274 273 272 271 270 269 268 268 268 268 267 267 267 267 268 267 267 267 267 267 267 267 266 266 266 265 265 265 264 264 264 263 263 263 263 262
277 277 277 276 276 276 275 274 274 272 271 271 270 269 268 268 267 267 267 267 267 267 267 267 266 266 266 266 266 266 266 264 264 264 264 264 263 264 262 262 262 261 261 260

GFSNGP_925_thetae_096.txt.gz
Theta_e
308 309 309 310 313 315 317 318 320 320 320 320 319 319 318 319 320 320 320 321 323 327 329 330 331 331 330 328 326 326 325 326 327 326 326 326 325 325 325 324 323 323 322 322
309 308 307 309 309 310 311 312 313 315 317 317 317 317 318 318 318 319 319 319 320 322 326 329 330 331 331 330 328 326 325 325 326 327 326 326 326 326 325 325 325 325 325 324
312 310 309 312 310 309 308 309 310 311 313 315 316 317 318 319 320 319 319 319 319 322 324 327 330 331 331 331 329 327 326 325 325 327 327 326 326 326 326 326 325 325 321 319
312 312 314 311 309 309 311 311 311 317 313 311 315 319 319 320 322 323 324 324 324 323 322 323 324 330 331 331 331 330 328 327 326 326 326 326 326 326 324 321 318 314 310 308
311 312 310 309 310 312 317 317 319 320 320 321 320 320 318 320 319 320 321 323 322 321 322 322 321 320 329 330 330 331 330 329 327 326 326 325 320 312 311 312 305 302 299 298
314 312 313 315 312 311 312 318 316 316 316 316 316 321 319 318 317 318 319 319 319 319 320 322 321 322 324 329 330 330 329 328 328 326 318 310 308 304 299 297 293 291 290 290
313 315 313 312 311 311 313 320 315 315 315 315 315 315 316 317 318 317 319 316 316 318 320 322 323 323 324 317 314 311 314 311 309 308 307 304 298 295 294 291 289 288 287 287
313 313 314 311 310 315 315 313 313 314 315 314 315 315 314 314 317 317 316 313 313 315 316 314 313 312 308 305 303 304 304 301 297 296 295 295 294 290 288 287 286 285 285 285
311 311 312 312 315 314 312 311 311 313 312 313 313 313 313 317 317 314 311 309 308 308 309 306 306 304 300 298 298 297 296 293 292 291 290 290 289 288 288 287 286 285 285 284
314 312 312 314 313 313 310 310 311 312 312 310 311 314 316 316 311 306 304 302 302 303 303 300 299 298 297 295 295 293 292 291 290 290 289 289 288 288 287 287 286 286 286 285
314 311 311 311 312 312 312 311 311 312 310 310 314 314 310 307 303 300 297 298 298 299 299 297 296 294 294 293 291 290 289 288 287 286 285 285 284 285 285 286 286 284 283 282
313 312 312 312 311 311 311 311 311 310 309 311 309 307 303 299 296 294 292 290 289 288 291 295 296 294 292 291 289 288 287 286 285 284 284 283 282 281 280 281 282 281 280 279
312 310 310 310 310 310 310 311 308 307 307 307 301 300 297 294 291 290 288 287 286 285 285 286 287 288 290 289 288 287 285 284 284 283 282 281 280 279 278 278 277 277 277 277
308 310 310 311 310 310 310 310 307 305 302 300 296 294 291 290 289 288 287 286 286 286 286 286 285 286 287 287 287 287 286 285 284 283 281 280 280 279 278 277 276 275 275 275
309 309 309 309 310 309 309 309 308 307 303 297 293 291 289 287 285 284 283 283 283 283 283 284 284 284 285 286 285 285 284 284 285 284 284 283 281 279 278 277 276 275 275 275
306 307 307 307 306 306 305 306 307 307 303 295 291 286 284 283 282 282 282 282 282 282 282 282 282 282 283 283 283 283 282 282 282 281 281 281 279 278 277 275 274 273 273 274
302 303 302 303 302 302 302 302 303 304 299 292 287 284 283 281 280 280 280 280 280 280 281 280 280 281 281 281 281 280 280 280 280 280 279 279 278 276 275 273 272 271 271 272
298 298 297 296 296 296 297 296 295 295 292 287 284 282 280 279 279 279 279 279 279 279 279 279 280 280 279 279 279 279 279 278 278 278 277 277 276 276 275 273 272 271 271 271
293 293 292 291 290 291 290 289 287 286 284 282 280 279 279 279 279 278 278 278 277 277 277 278 278 277 277 277 277 276 276 276 275 275 275 275 275 274 274 273 272 272 271 271
288 288 287 286 285 286 286 285 283 282 280 279 279 278 277 276 276 276 275 276 276 276 276 276 276 276 276 276 276 276 275 275 274 274 273 272 272 272 272 272 272 271 270 270
286 285 284 283 283 282 282 282 281 280 279 277 277 276 276 276 275 275 274 274 274 274 274 274 275 275 275 275 274 274 274 273 273 273 273 272 272 272 271 271 270 270 270 269
284 283 281 281 280 279 278 278 277 276 275 275 275 275 274 274 274 273 273 273 272 272 272 272 273 273 273 273 273 273 273 273 273 272 272 271 271 270 270 269 269 269 268 268
283 282 280 280 279 278 277 277 276 276 276 276 276 276 275 274 273 272 271 270 271 270 270 271 271 272 272 272 271 271 271 271 271 270 270 270 269 269 268 268 268 267 266 266
280 280 279 279 278 277 276 275 275 274 274 273 272 272 271 271 270 269 269 269 269 269 269 270 270 271 271 270 270 270 269 269 269 268 268 268 268 267 266 266 266 266 265 265
280 279 279 278 277 276 275 274 273 272 272 271 271 271 271 270 269 268 268 268 268 268 268 269 269 269 269 269 269 269 269 269 268 268 267 267 267 266 266 265 265 264 264 264
280 279 279 278 278 277 276 275 274 272 271 271 270 269 269 269 269 268 268 268 268 268 268 268 268 268 268 268 268 267 267 266 266 266 266 265 265 265 264 264 264 263 263 262
278 278 277 277 276 276 275 274 273 272 271 270 270 269 269 269 269 268 268 268 268 268 267 267 267 267 267 267 267 266 266 265 265 265 265 264 265 264 263 263 262 262 261 261

GFSNGP_925_thetae_099.txt.gz
Theta_e
309 308 308 308 308 311 316 318 322 320 317 319 322 321 317 315 319 321 321 321 318 317 327 328 326 326 326 325 325 325 324 324 323 323 323 322 321 321 322 322 322 322 320 319
311 311 309 309 308 308 309 309 310 311 312 312 314 315 314 322 322 323 324 324 323 322 321 322 328 326 326 325 325 324 324 324 324 324 323 323 322 323 324 322 323 323 323 323
314 311 312 310 309 309 308 308 308 308 310 310 309 317 320 319 319 319 321 322 322 320 320 319 320 328 327 326 325 324 324 325 324 324 324 324 323 323 323 324 323 323 323 321
314 312 314 311 311 310 309 311 312 317 319 317 317 318 317 316 317 318 318 320 319 317 317 318 319 320 327 327 326 325 324 324 325 325 325 325 325 324 324 324 323 319 315 312
313 312 312 310 311 315 317 319 316 316 316 314 315 316 315 314 315 316 318 317 316 316 316 318 317 317 320 325 327 325 324 324 324 325 325 325 325 321 319 316 309 305 301 300
311 312 312 315 314 310 311 320 316 315 315 314 313 315 314 313 312 315 314 314 313 314 316 314 312 313 316 319 325 326 325 325 325 324 325 322 313 310 305 304 298 296 294 293
310 314 314 312 312 311 313 317 314 313 313 313 313 313 312 311 315 315 312 312 310 311 312 309 308 308 304 305 305 304 310 315 317 315 310 306 301 296 294 293 292 289 288 288
310 310 312 311 311 314 315 312 311 312 311 312 311 310 310 314 314 310 307 306 306 307 307 305 304 305 300 299 299 300 300 299 298 297 296 296 295 291 289 288 287 287 286 286
310 309 310 311 313 313 311 311 311 310 308 308 308 309 314 314 308 304 301 301 301 303 303 301 300 300 298 297 298 297 295 293 292 292 291 290 290 288 288 287 286 286 285 284
312 311 311 311 312 312 311 311 310 309 308 310 313 312 311 307 302 299 297 297 297 299 299 297 296 295 295 294 294 293 292 291 290 289 289 288 288 288 287 286 286 285 284 284
314 312 311 312 311 311 310 310 310 308 309 310 310 306 304 300 298 296 293 292 291 291 296 295 294 293 292 291 291 289 288 287 286 285 284 283 284 285 284 284 283 282 281 281
313 312 312 312 311 311 311 309 308 308 307 302 301 300 299 296 294 292 290 288 288 288 289 290 292 291 290 289 288 287 286 285 284 283 282 282 281 281 281 281 281 281 280 280
310 310 309 309 309 308 307 306 305 303 302 299 298 296 294 293 290 289 287 287 287 286 287 287 288 287 287 286 285 284 283 282 281 281 280 280 279 279 278 277 278 278 278 278
309 309 310 308 307 306 307 305 303 300 298 295 293 291 290 287 285 285 284 284 285 285 286 287 287 287 286 286 285 284 283 282 282 280 279 278 278 277 276 276 276 276 276 277
305 304 305 304 304 303 303 303 304 300 295 291 290 288 287 286 284 284 283 283 283 283 283 283 283 284 285 286 285 284 283 282 282 281 279 278 277 276 276 276 276 275 275 274
302 301 300 301 300 300 300 300 300 301 293 288 286 285 284 283 282 282 282 282 282 282 282 282 282 282 283 283 283 283 282 282 281 280 279 278 277 276 276 275 274 274 274 273
298 298 297 296 296 296 296 295 294 295 290 286 284 283 282 281 280 280 280 280 280 280 280 281 281 281 282 281 281 281 280 280 279 278 277 276 274 273 272 272 272 272 272 272
292 292 291 291 291 292 292 291 289 288 287 285 282 281 280 280 279 279 278 278 279 279 279 279 280 280 280 280 279 279 278 278 278 277 276 275 273 271 271 271 271 271 271 271
288 288 288 287 286 288 287 286 285 283 282 280 280 279 279 279 278 277 277 277 277 277 277 277 277 277 277 276 276 276 276 276 275 275 274 274 273 273 272 271 271 270 270 269
286 285 284 284 282 282 283 282 281 280 280 279 278 277 276 276 276 276 275 275 276 276 276 276 276 276 276 276 275 275 274 274 273 273 273 272 272 272 271 271 270 270 269 269
284 282 282 281 279 279 279 279 279 278 277 277 276 276 275 275 274 274 274 274 274 275 275 275 275 275 275 274 274 273 273 273 272 272 271 271 271 271 270 270 269 269 268 268
281 279 279 278 277 276 276 276 276 275 275 275 275 275 273 273 272 272 272 272 272 273 273 274 274 274 273 273 273 273 272 272 271 271 271 271 270 270 269 269 268 268 267 267
280 279 278 277 276 276 276 275 275 275 275 274 274 273 273 272 272 271 271 271 271 272 272 272 273 273 272 272 272 271 271 271 271 270 270 269 269 268 268 268 267 267 266 265
279 279 277 276 275 274 274 273 273 272 272 272 271 271 270 269 269 269 270 270 271 271 271 271 271 271 271 271 270 270 270 269 269 268 268 267 267 267 267 266 265 265 265 264
279 278 277 276 275 273 273 272 272 271 271 270 270 270 269 269 269 268 269 269 269 270 270 270 270 270 270 270 269 269 268 268 268 267 267 267 266 265 265 265 264 264 263 263
278 277 277 277 276 275 273 272 271 270 270 269 269 269 269 268 268 268 268 269 269 268 268 268 268 268 268 268 267 267 267 267 266 266 266 266 265 265 264 263 263 263 263 263
277 276 275 275 275 274 273 272 271 271 270 270 269 269 269 268 268 268 268 268 268 268 268 267 267 267 267 267 266 266 266 266 265 265 265 265 264 264 263 263 263 262 262 262

GFSNGP_925_thetae_102.txt.gz
Theta_e
309 310 310 309 308 309 318 316 316 318 320 323 321 322 322 320 322 320 323 322 320 320 322 321 325 325 324 323 322 322 321 321 321 322 321 320 320 319 319 318 318 317 317 317
311 310 311 311 310 308 311 313 312 310 309 313 318 319 320 319 319 320 321 320 318 318 318 319 320 324 325 324 323 322 322 321 321 321 322 320 320 319 319 319 319 318 317 317
312 312 312 309 309 309 309 310 312 309 318 315 320 318 317 316 317 319 319 318 317 316 317 318 317 316 318 325 324 323 323 322 322 321 322 321 320 320 320 320 320 320 321 319
311 310 312 311 309 309 316 317 315 315 314 316 316 315 314 314 315 318 318 317 315 314 315 314 312 312 314 321 324 324 323 323 323 322 322 322 321 321 321 321 320 321 320 319
308 310 310 308 312 312 315 317 315 315 314 313 313 314 312 312 316 316 315 313 312 311 313 310 308 309 311 311 315 324 324 323 323 323 323 322 322 321 321 320 318 315 312 310
307 309 310 311 312 311 310 319 314 314 314 313 312 313 312 313 315 313 311 308 307 308 308 306 305 306 307 306 306 307 316 323 323 323 323 323 319 316 314 313 308 303 299 298
306 307 311 311 311 310 312 314 313 312 311 312 312 311 310 314 310 307 305 304 303 304 305 303 302 303 302 302 301 302 304 312 319 321 320 314 310 307 304 299 295 292 291 290
305 307 309 309 311 312 313 311 311 310 310 309 308 311 313 309 305 302 301 300 300 301 302 299 298 300 300 298 299 300 302 300 301 304 304 302 303 296 293 292 290 288 287 286
307 307 308 309 311 313 311 309 308 307 307 309 312 313 310 305 301 298 297 296 296 299 299 297 296 296 297 296 296 296 297 295 293 293 293 293 291 290 289 289 288 287 286 285
309 310 311 311 311 312 310 308 307 308 310 311 309 306 303 301 297 295 292 292 292 294 297 295 294 293 293 293 293 292 291 291 290 290 289 289 289 288 287 287 285 285 284 283
313 312 311 312 310 310 309 308 309 306 305 305 303 301 299 296 294 292 290 290 290 290 291 294 292 291 290 290 290 287 286 285 285 284 284 284 284 284 284 284 283 283 282 282
312 311 309 312 311 310 309 308 307 304 300 299 299 299 296 293 291 289 288 288 288 288 289 289 290 289 288 288 287 286 285 284 284 283 283 283 283 282 283 284 284 283 282 282
308 308 308 307 305 306 306 304 302 301 299 296 294 292 291 290 287 287 286 285 285 286 287 287 287 286 286 286 286 283 282 282 281 281 281 281 281 281 281 280 280 280 280 280
304 307 306 303 303 302 303 301 297 295 293 292 290 288 287 285 285 284 284 284 284 284 284 285 285 285 284 283 283 282 282 282 281 281 280 279 279 279 279 279 279 279 279 278
301 300 300 299 298 298 298 299 299 294 291 288 287 286 286 286 284 284 283 283 283 283 283 283 283 283 284 283 282 281 281 280 279 278 277 277 277 277 277 276 276 276 276 276
298 296 296 295 295 295 296 294 295 293 289 287 285 284 283 283 282 282 281 282 281 281 281 281 281 282 283 283 282 281 280 279 279 278 277 277 277 276 276 275 275 274 272 272
295 294 293 292 292 293 293 293 293 291 288 287 285 283 282 281 280 280 280 280 279 279 280 280 280 281 281 281 280 280 279 278 277 276 275 275 274 274 274 274 273 272 271 271
289 288 287 287 287 289 290 289 288 287 286 284 282 281 280 280 279 278 278 278 278 278 278 279 279 280 280 279 279 279 278 277 276 275 274 273 273 273 272 272 271 270 270 269
286 286 285 284 283 285 284 284 283 282 281 280 280 279 279 278 278 277 277 277 277 277 277 278 278 279 278 278 278 277 276 275 274 273 272 272 272 271 271 270 270 269 269 268
283 283 283 281 280 280 281 281 281 280 279 279 277 277 276 276 276 276 276 276 276 276 276 276 277 276 276 277 277 276 275 274 273 272 272 271 271 270 270 270 269 269 268 268
280 280 279 278 277 276 277 277 278 277 277 276 276 275 274 274 275 275 274 274 274 275 275 275 275 275 275 275 274 273 273 272 272 271 271 270 270 270 269 269 269 268 267 267
278 276 275 275 275 274 275 275 275 275 275 274 273 273 272 272 272 272 272 273 273 274 274 274 274 274 273 273 273 272 272 271 271 271 270 270 269 269 269 268 268 267 267 266
277 276 275 274 273 272 273 273 273 273 273 272 272 272 271 271 272 272 271 272 273 273 273 273 273 273 273 272 272 271 271 271 270 270 270 269 269 268 268 267 267 267 266 265
276 276 274 274 273 272 271 272 272 271 271 271 271 271 271 270 270 270 271 271 272 272 271 272 272 272 272 271 271 271 270 270 269 269 269 268 268 267 267 266 266 265 265 264
276 275 274 273 272 272 271 271 271 270 270 269 269 269 270 269 269 269 270 270 271 271 270 271 271 271 270 270 270 269 269 268 268 267 267 267 267 266 266 265 265 264 264 263
276 276 275 274 274 272 272 271 270 270 269 269 269 269 269 269 269 269 269 270 270 270 269 269 269 269 269 269 268 268 268 267 267 267 266 266 265 265 264 264 264 264 263 263
275 274 274 273 273 272 271 271 270 270 269 269 269 269 269 269 269 269 269 269 268 268 268 268 268 268 267 267 267 266 266 266 266 265 265 265 264 264 263 263 263 262 262 262

GFSNGP_925_thetae_105.txt.gz
Theta_e
310 310 313 314 310 309 317 316 316 314 313 319 321 319 321 321 321 321 320 318 317 317 320 320 320 324 323 323 322 321 320 321 322 322 321 320 318 318 317 316 316 316 316 316
311 311 310 314 312 310 311 316 317 318 310 315 318 317 318 320 322 321 320 318 317 316 317 317 316 316 317 323 323 322 321 320 320 322 322 321 320 318 318 317 317 317 315 315
308 310 309 309 311 310 311 312 316 318 316 318 317 317 317 318 319 318 318 317 315 314 315 313 311 311 312 314 320 322 322 321 320 320 321 321 320 319 319 318 317 317 317 317
312 309 307 310 310 313 316 315 312 315 318 316 314 314 313 315 318 317 315 314 312 312 312 309 308 308 309 314 318 323 322 322 322 321 320 321 320 319 319 319 318 318 318 317
310 311 308 310 313 310 316 317 315 314 315 314 312 313 314 316 314 313 311 309 309 308 309 305 304 304 305 307 309 312 323 322 322 322 321 321 320 319 319 319 318 318 318 318
307 308 306 307 310 310 312 318 315 314 314 313 313 314 313 314 311 308 305 303 303 304 304 301 300 302 304 304 304 304 308 315 322 322 322 321 321 319 318 318 317 313 310 307
305 304 308 307 309 308 313 316 314 312 312 311 310 308 311 308 304 302 300 299 299 301 300 298 298 300 302 301 299 300 303 308 316 322 322 321 320 319 315 310 305 299 295 292
302 304 307 306 311 311 311 310 311 310 309 308 311 311 307 303 300 297 296 295 295 298 297 296 296 297 298 296 296 297 299 300 304 308 313 312 315 306 301 297 292 288 287 286
304 304 304 308 311 312 309 308 308 307 308 311 310 305 303 299 297 294 293 293 294 295 296 295 293 293 294 293 294 294 294 294 294 296 296 297 295 294 293 294 290 288 286 285
305 306 310 310 310 310 309 308 309 309 309 306 304 302 299 297 294 292 291 291 291 292 293 293 292 291 291 291 291 291 290 290 290 290 290 290 290 290 289 288 287 286 285 284
310 311 310 311 310 309 310 307 304 302 302 302 301 300 297 295 292 290 289 289 289 290 290 290 290 289 289 288 288 287 286 286 285 285 285 285 285 285 285 285 285 284 284 284
308 307 309 310 307 309 308 306 303 300 298 296 296 295 293 291 289 288 287 287 287 288 288 288 287 286 286 286 286 286 285 284 284 284 284 284 283 283 284 285 284 284 283 283
303 305 304 303 303 303 302 300 299 297 296 293 291 289 289 287 284 285 284 284 284 284 283 284 284 284 284 284 284 283 282 282 282 283 283 283 283 282 282 282 282 283 283 283
303 301 301 299 298 298 299 296 294 292 290 289 288 287 285 284 283 283 283 283 283 283 282 282 283 283 283 282 282 281 281 281 280 280 281 281 281 281 280 280 280 280 280 280
298 297 298 296 295 296 295 296 295 292 289 287 286 286 285 284 284 283 282 282 282 281 281 282 282 282 282 282 280 279 278 278 278 278 278 278 278 278 278 278 278 277 276 276
296 293 293 292 292 293 293 293 293 291 288 286 285 284 283 282 282 281 280 280 280 279 280 280 281 281 281 281 280 279 278 278 278 278 277 277 277 276 276 275 274 273 272 272
292 291 289 289 289 290 291 291 291 290 288 286 284 283 281 280 280 279 278 279 279 279 279 279 279 280 280 280 279 278 277 276 276 276 275 275 275 275 274 273 272 271 270 271
287 287 285 284 285 287 287 286 286 286 285 283 281 280 279 278 277 278 278 278 278 278 278 279 280 280 279 279 278 277 276 276 275 274 274 274 273 273 272 271 270 269 269 269
283 283 284 282 281 283 282 282 282 282 281 280 280 278 277 277 277 277 277 277 277 276 277 278 279 279 278 278 278 277 276 275 274 274 273 273 272 271 271 270 269 269 268 268
281 281 280 279 278 278 278 278 279 279 279 278 277 276 276 275 276 275 275 274 275 276 276 276 277 277 277 277 277 276 275 274 273 272 272 271 271 270 270 269 269 268 268 267
278 278 277 276 276 275 275 276 276 275 276 276 275 274 274 274 274 274 274 274 274 275 275 275 275 275 275 275 275 274 273 272 272 271 271 270 270 270 270 269 268 268 267 266
275 274 273 273 273 272 273 274 274 274 273 273 273 273 273 272 273 273 273 273 273 274 274 274 274 274 274 274 273 273 272 271 271 271 270 270 270 269 269 268 268 267 267 266
275 274 273 272 271 271 272 272 272 272 272 272 271 271 271 271 272 272 272 272 273 273 273 273 273 274 274 273 273 272 272 271 271 271 270 270 269 269 268 268 267 267 266 266
275 274 273 272 272 271 269 270 270 270 270 270 271 271 271 270 270 271 271 272 272 272 272 272 272 272 272 272 271 271 271 271 270 270 270 269 269 268 268 267 267 266 265 265
275 274 273 272 271 271 270 270 270 270 270 269 270 270 270 270 270 270 271 271 271 271 271 271 272 271 271 271 270 270 270 269 269 269 268 268 268 267 266 266 265 265 264 264
275 274 273 273 272 271 271 270 269 269 269 269 269 269 269 269 270 270 270 270 270 270 270 270 270 270 269 269 269 269 268 268 267 267 267 266 266 266 265 265 264 264 263 263
274 274 273 272 272 271 270 270 269 269 269 269 268 269 269 269 269 269 269 269 269 269 268 268 268 268 268 268 267 267 267 267 266 266 265 265 264 264 264 263 263 263 263 262

GFSNGP_925_thetae_108.txt.gz
Theta_e
308 309 311 314 316 311 316 313 313 314 312 313 321 320 319 320 320 321 319 319 317 316 314 315 315 319 322 321 321 321 320 322 322 322 321 319 318 318 318 318 318 319 318 317
308 306 305 312 313 312 312 315 316 314 316 317 317 318 320 322 321 320 319 318 316 315 313 312 311 311 312 315 321 321 320 320 321 322 321 321 320 318 317 317 316 317 317 317
308 308 308 311 312 312 312 312 314 314 316 317 317 319 319 318 318 318 318 315 313 313 312 309 307 307 308 310 313 320 320 320 320 321 322 321 320 320 318 317 317 315 315 316
311 310 305 308 311 310 313 315 312 315 316 315 315 314 315 316 316 315 313 311 309 308 308 304 302 302 304 307 309 313 320 321 320 320 320 321 320 319 318 318 317 317 317 316
310 310 307 310 312 311 313 316 314 316 315 315 317 317 316 313 311 308 306 304 304 303 302 300 299 301 303 304 304 306 306 313 321 321 320 320 320 319 319 318 317 317 317 317
307 309 308 306 308 307 311 317 315 315 315 316 315 315 316 308 306 303 301 299 300 301 299 298 298 298 301 301 300 300 300 302 309 315 321 320 320 319 319 319 318 316 314 310
306 307 308 306 306 307 314 313 314 313 313 313 310 309 309 303 300 298 296 296 296 298 297 295 295 296 298 296 296 296 298 300 303 309 317 321 320 319 318 315 310 303 300 296
302 303 305 304 308 312 310 310 312 310 309 312 310 306 303 300 297 294 294 295 295 296 296 294 293 293 294 293 293 294 294 296 297 300 306 315 318 314 309 305 297 293 293 289
304 303 302 306 309 309 309 308 309 307 311 310 308 305 300 298 295 294 293 292 291 292 293 292 291 291 291 290 290 291 291 291 292 293 296 299 299 296 295 295 291 288 287 286
306 306 308 308 308 308 309 308 308 307 306 304 302 299 298 296 293 292 290 289 289 291 291 290 289 289 289 288 288 288 287 287 288 288 289 290 292 292 291 290 289 288 286 285
308 308 308 308 306 308 306 304 302 300 301 300 298 296 295 293 291 289 288 288 289 289 288 287 286 286 286 287 287 286 286 285 285 285 285 285 285 286 286 286 287 286 285 284
309 306 308 306 304 306 304 302 301 298 295 294 294 294 292 290 288 287 286 286 286 285 285 285 284 284 284 284 285 285 285 284 284 284 284 284 284 284 284 284 285 285 284 284
301 301 300 300 298 299 299 298 296 295 293 291 289 289 288 286 284 285 284 284 283 282 283 284 283 282 282 283 283 282 282 283 283 283 283 283 283 283 284 283 283 283 282 281
297 297 298 295 295 294 297 294 292 290 289 288 287 286 285 283 284 283 283 282 281 281 282 282 282 281 281 282 281 281 280 280 280 281 281 281 281 281 281 281 280 280 280 280
296 294 294 293 292 293 293 295 292 290 288 286 285 284 284 284 283 283 282 281 281 280 280 281 280 279 280 280 280 279 279 278 278 278 278 278 278 278 278 277 277 276 276 276
294 290 290 289 289 290 291 291 292 291 288 286 284 282 281 281 280 280 279 279 279 278 279 280 280 279 279 279 278 278 278 278 278 278 277 277 276 275 275 274 273 272 272 272
290 290 287 286 286 287 288 287 288 288 287 285 284 282 280 279 278 278 278 278 278 278 278 278 278 279 278 278 277 277 277 277 277 276 276 275 275 274 273 272 271 271 270 271
285 285 284 283 283 284 284 283 284 284 283 282 280 279 277 276 275 277 277 277 277 277 278 278 278 278 278 278 277 277 276 276 276 275 275 274 273 273 272 271 270 269 269 270
282 282 281 280 279 280 279 279 279 281 280 280 279 277 277 277 276 276 276 276 276 275 276 277 278 278 278 278 278 277 276 275 274 274 273 272 272 271 270 270 269 269 269 269
280 279 278 277 276 276 276 276 277 277 277 277 277 276 275 275 275 275 275 274 275 275 276 276 277 276 276 277 277 276 275 274 273 272 272 271 270 270 269 269 269 268 268 268
276 276 275 275 274 273 273 274 274 274 274 275 275 274 273 273 274 274 273 273 274 275 275 275 276 275 275 276 276 275 274 273 272 272 271 270 270 269 269 268 268 268 267 267
274 272 272 272 271 271 271 272 272 272 272 272 272 272 272 272 272 272 273 272 273 274 274 274 274 274 274 274 273 273 272 272 272 271 271 270 270 269 268 268 267 267 266 266
273 272 272 271 270 270 270 271 271 271 271 271 271 271 271 271 272 272 271 272 272 273 273 272 273 273 274 273 272 272 271 271 271 270 270 270 269 269 268 268 267 267 266 266
273 272 271 271 271 270 269 269 270 270 270 270 271 271 271 270 270 271 271 271 272 272 272 272 272 272 272 272 271 271 271 270 270 270 269 269 269 268 268 267 267 266 266 265
274 273 272 271 270 269 270 270 269 269 269 269 269 270 270 270 270 270 271 271 271 271 271 271 271 271 271 271 271 270 270 270 270 269 269 268 268 267 267 266 266 265 265 264
274 273 272 272 271 270 270 270 269 269 269 268 268 269 269 270 270 270 270 270 270 270 270 270 270 270 270 270 269 269 269 268 268 268 268 267 267 266 266 265 265 264 264 264
273 272 272 271 271 270 270 269 269 268 268 268 268 269 269 269 269 269 269 269 269 269 269 269 269 269 268 268 268 268 267 267 267 267 266 266 265 265 265 264 264 264 263 263

GFSNGP_925_thetae_114.txt.gz
Theta_e
309 309 308 313 316 315 315 310 312 311 311 316 320 323 325 324 324 323 322 321 319 317 314 310 308 308 308 309 312 320 322 323 323 323 323 322 322 323 323 321 320 321 320 318
306 308 309 309 314 314 315 316 313 312 311 313 319 322 324 323 322 322 320 318 317 315 312 308 305 306 306 307 309 312 319 323 323 321 321 322 322 322 322 322 322 322 321 320
307 307 310 313 314 313 312 314 316 317 315 320 319 322 323 322 321 319 316 314 313 311 308 307 304 303 305 305 305 308 310 319 323 321 321 320 322 321 321 321 321 321 319 318
307 307 312 309 311 312 312 313 315 315 318 321 320 317 316 317 317 315 312 311 310 308 306 304 304 303 303 302 302 303 304 305 308 316 322 321 321 321 320 321 320 320 320 319
307 308 305 310 308 311 313 315 316 316 319 319 317 315 313 311 310 309 308 307 306 304 302 301 301 301 301 300 300 299 298 300 301 302 309 316 322 321 321 320 320 319 318 318
305 305 308 309 307 307 311 319 317 317 319 318 317 320 315 308 307 306 305 303 304 302 300 299 298 300 297 297 296 296 296 296 298 298 301 306 313 321 321 321 320 318 316 316
307 305 304 307 308 311 317 318 315 317 314 314 315 311 307 305 304 303 301 300 301 300 298 296 296 297 297 294 293 293 293 294 294 295 297 300 308 316 320 320 317 315 313 310
307 307 306 307 309 312 312 313 314 313 313 313 310 306 304 303 301 300 300 299 298 298 296 294 293 293 294 293 291 291 291 291 292 292 293 296 299 308 315 313 306 301 299 297
306 307 307 308 309 310 310 312 313 312 313 312 308 305 302 300 298 297 297 296 296 296 295 292 291 290 291 290 290 290 290 290 290 290 290 291 294 295 297 299 295 291 290 288
307 309 306 303 305 306 306 308 309 310 309 307 305 302 301 299 298 296 294 294 293 293 292 291 289 288 288 288 289 289 289 288 288 288 288 288 290 291 292 291 289 288 287 285
305 303 302 299 299 302 302 301 301 302 302 302 301 299 298 296 295 294 293 292 290 290 289 288 287 286 286 287 288 288 287 287 287 287 286 286 285 286 287 288 289 287 285 284
303 300 301 298 297 297 297 297 298 299 297 297 297 296 295 294 292 292 291 289 288 287 287 286 285 285 284 285 287 287 286 286 286 286 285 285 284 284 283 284 284 284 284 284
297 298 296 296 295 296 295 293 293 292 294 294 293 293 292 292 288 286 286 285 284 284 284 283 283 282 282 283 284 285 286 285 285 285 284 284 283 283 282 282 281 281 280 280
294 295 296 293 294 293 296 294 292 292 291 291 291 291 290 288 287 285 283 282 282 282 282 281 281 280 280 282 283 283 284 284 284 284 283 282 282 282 282 282 281 281 280 280
293 292 291 291 292 291 292 294 293 292 290 289 288 289 289 288 286 285 283 282 282 281 280 280 280 279 280 281 282 283 283 283 283 282 281 281 281 280 280 279 278 278 278 278
292 290 289 288 289 289 289 290 291 291 289 287 286 285 285 285 285 284 282 281 282 281 280 280 279 278 279 281 282 282 281 282 282 282 282 281 281 281 280 280 280 280 279 278
290 289 287 286 287 287 286 286 287 287 287 286 285 283 282 282 282 281 280 279 279 280 280 280 279 278 278 280 282 282 281 281 282 282 282 281 281 280 280 280 279 278 276 275
285 284 284 283 283 285 284 284 283 284 284 283 282 281 281 281 281 279 279 279 279 279 279 279 279 279 279 280 281 281 281 281 281 281 281 280 280 279 279 278 277 276 274 272
282 282 281 280 280 281 280 280 280 279 280 281 281 280 280 279 279 279 279 279 280 281 278 278 278 279 279 278 280 280 280 280 280 279 278 278 278 278 277 277 276 275 274 273
280 279 278 277 276 276 277 276 277 277 277 279 279 279 278 277 277 277 277 277 277 277 277 277 278 278 278 277 279 279 280 279 279 278 278 277 277 276 275 274 274 273 272 271
277 276 275 275 275 274 274 275 275 275 275 275 277 276 276 276 276 277 279 279 276 275 276 276 277 277 277 277 278 278 278 278 278 277 277 276 275 274 274 273 272 272 271 270
276 275 273 273 274 273 272 273 273 273 274 274 274 274 275 276 276 275 274 276 275 274 275 276 275 274 275 276 277 277 277 277 276 276 275 275 274 273 273 272 272 271 270 270
276 275 273 272 272 272 272 272 272 272 273 273 273 274 275 275 275 277 277 274 274 273 274 273 272 273 273 275 275 275 275 275 275 274 274 273 273 272 272 271 270 270 269 269
275 274 274 273 273 274 274 272 273 272 272 273 272 272 275 275 274 274 273 272 271 272 271 271 271 271 273 273 274 274 274 273 273 273 272 272 271 271 270 270 269 269 267 267
274 274 274 274 275 275 273 273 273 273 273 273 272 273 273 273 274 273 273 272 271 272 271 269 270 271 272 272 272 272 272 272 272 272 271 271 270 270 269 269 268 268 267 266
276 276 275 273 274 274 274 274 274 273 273 273 273 272 272 272 272 272 271 271 271 271 271 270 270 271 271 271 271 271 270 270 270 270 270 269 269 268 268 267 266 266 266 265
275 274 274 274 273 273 273 273 274 273 272 273 273 272 272 271 271 271 271 271 270 270 270 269 269 269 269 269 269 268 268 268 268 268 268 267 267 267 266 266 265 265 264 263

GFSNGP_925_thetae_117.txt.gz
Theta_e
305 305 308 312 316 312 314 315 314 313 311 316 320 322 325 324 323 323 323 321 319 318 316 313 309 308 308 308 309 311 317 322 323 324 324 325 325 325 324 322 320 319 318 317
306 309 309 314 317 315 311 310 312 311 313 312 317 320 322 324 324 322 321 320 317 315 314 313 309 306 307 306 307 307 309 313 324 323 324 325 325 325 324 324 322 320 318 317
306 307 310 318 315 315 316 317 313 315 314 320 316 317 323 323 322 320 318 317 314 313 311 310 310 306 304 304 304 304 304 304 307 321 322 323 324 324 324 324 324 322 321 319
307 308 316 313 310 314 315 314 315 316 317 320 322 320 319 317 316 316 315 313 312 310 308 307 307 308 305 301 301 301 300 300 300 303 311 319 321 323 323 323 323 322 323 321
308 308 310 311 309 309 312 315 317 316 319 319 316 317 314 311 312 311 311 310 309 306 305 304 304 304 304 301 298 298 297 297 297 299 301 307 315 322 322 322 322 322 322 321
307 306 310 309 308 308 311 319 313 315 319 318 317 320 312 310 309 308 307 307 306 305 303 302 301 302 301 299 297 295 294 294 295 296 297 299 304 312 320 322 322 321 320 319
308 309 306 309 308 310 317 316 313 308 315 315 313 309 307 307 306 306 304 303 304 302 300 299 298 299 299 297 295 293 292 293 293 293 294 296 299 305 313 319 321 317 313 310
309 308 310 309 308 312 311 311 308 310 311 311 310 308 305 304 304 304 303 302 301 301 298 296 295 296 296 295 293 292 291 291 292 291 292 292 294 299 307 313 310 301 299 297
307 308 307 304 305 307 306 307 306 312 313 310 307 305 303 302 301 300 300 299 298 298 297 295 293 293 293 292 292 291 290 290 289 290 289 290 292 293 296 297 296 292 290 288
304 306 303 300 299 300 302 302 302 304 308 307 305 303 301 300 299 299 297 296 296 295 294 293 292 291 291 291 291 290 289 289 288 287 287 288 289 289 290 291 290 288 287 286
303 303 301 300 298 298 298 298 300 298 302 303 301 300 300 298 297 296 295 294 293 292 291 290 289 289 288 289 290 289 288 288 287 286 286 285 284 285 286 288 288 286 285 284
303 300 299 299 297 297 296 296 296 298 299 299 299 298 297 295 292 291 291 290 289 289 288 287 287 286 286 286 288 288 287 286 286 286 285 284 284 283 283 283 285 285 285 284
298 297 298 296 298 295 297 295 295 294 295 295 295 295 293 291 287 286 286 285 285 285 284 284 284 283 284 285 285 287 286 286 285 285 284 284 284 283 282 282 281 281 281 280
296 297 298 294 294 294 295 296 295 294 293 293 293 293 293 290 288 286 284 284 283 283 282 282 282 282 282 283 284 285 285 285 285 284 283 283 283 283 282 282 281 281 280 280
295 295 293 293 293 293 293 294 295 294 293 292 291 291 291 291 288 286 284 284 284 282 282 281 281 281 282 283 283 284 284 284 283 283 283 283 282 282 281 280 280 280 280 279
293 294 292 292 292 291 291 291 292 292 291 290 289 288 287 288 287 285 283 282 283 282 282 281 280 280 282 283 283 283 284 283 284 283 283 283 283 284 283 283 283 282 282 281
291 292 289 289 288 289 289 288 288 288 288 288 286 285 285 286 284 283 282 281 281 281 281 281 281 280 281 283 283 283 283 283 283 284 283 283 283 282 282 282 280 279 279 279
288 286 285 284 285 286 286 285 284 284 284 283 283 283 283 282 282 281 281 282 283 281 280 279 280 280 281 282 283 283 283 283 283 283 282 282 282 281 281 280 278 278 277 277
284 284 283 281 280 282 281 281 280 280 281 281 282 281 281 280 280 280 281 281 281 281 279 279 280 280 280 281 282 282 282 282 281 281 281 281 281 280 280 279 278 278 277 277
282 281 280 279 278 277 278 278 278 279 278 280 281 280 280 279 279 280 280 279 278 278 278 279 280 280 280 280 281 282 282 282 281 281 281 280 279 279 278 278 277 277 276 275
279 278 277 277 277 276 276 276 277 277 277 276 278 278 278 278 277 278 281 281 278 277 278 278 278 279 279 280 280 280 281 281 281 280 279 279 278 278 277 277 276 275 275 274
278 277 275 275 276 276 275 275 275 275 276 276 276 277 279 279 279 277 276 277 277 277 277 277 276 276 278 279 279 279 280 280 280 279 279 278 278 277 276 276 275 274 274 273
278 277 276 275 275 275 275 275 274 274 275 275 275 276 277 277 277 278 278 275 275 275 276 274 274 275 277 278 278 278 278 278 278 278 277 277 276 276 275 274 274 273 272 272
277 276 276 276 276 276 277 275 275 275 275 275 274 274 276 278 276 276 275 274 274 274 273 273 274 275 276 276 277 277 277 277 276 276 275 275 274 274 273 273 273 272 271 270
277 277 277 278 279 278 277 276 276 276 276 276 275 275 275 274 275 274 274 274 274 274 273 273 273 274 275 275 275 275 275 275 275 275 274 274 273 273 272 271 271 270 269 269
278 278 277 275 276 277 277 277 277 276 277 276 275 275 274 274 274 274 273 273 273 273 273 272 273 273 273 273 273 273 273 273 273 273 273 272 272 271 270 269 269 269 269 268
277 276 278 278 277 276 275 275 276 276 275 275 275 274 274 274 273 273 273 273 273 272 272 272 271 271 272 272 272 271 271 271 271 271 271 271 270 270 269 269 268 267 266 265

GFSNGP_925_thetae_120.txt.gz
Theta_e
306 305 306 309 310 315 315 313 316 312 310 311 318 321 325 324 325 324 322 320 319 317 315 312 310 309 307 307 306 309 312 317 320 323 323 323 325 326 324 322 321 321 319 318
308 306 306 307 313 317 314 312 312 313 313 317 317 316 319 319 324 323 320 317 316 314 313 313 310 308 306 305 304 305 306 306 307 316 323 325 325 325 325 322 321 320 318 318
309 306 307 314 314 313 314 317 318 318 315 316 321 320 316 312 318 319 317 315 313 311 310 309 310 307 304 303 302 302 302 303 303 306 312 317 324 325 324 324 322 321 319 318
310 309 313 313 310 308 312 313 315 315 318 319 316 315 315 314 314 314 313 311 310 309 307 306 306 306 305 302 300 299 299 299 300 301 302 308 317 322 324 324 324 322 320 319
309 308 307 311 310 310 310 313 311 314 314 316 314 312 312 311 310 311 310 309 307 305 304 303 303 304 302 301 298 297 296 296 296 298 299 299 304 312 321 323 323 323 323 321
310 310 309 311 307 310 311 316 311 311 311 315 316 312 310 308 307 306 307 306 305 303 301 300 300 302 300 298 297 295 294 294 294 295 298 297 297 302 310 319 322 322 321 320
311 310 311 306 307 309 308 310 309 304 308 307 306 309 307 306 306 305 304 303 303 300 299 297 297 299 298 296 295 294 293 292 292 293 295 295 295 299 305 310 319 317 317 313
308 309 311 303 306 307 307 305 304 302 307 309 307 306 305 303 303 302 301 300 300 299 297 295 294 295 295 294 293 292 291 290 290 290 292 294 295 295 299 302 302 302 300 298
308 307 303 300 300 299 301 302 301 300 307 306 305 303 302 301 300 299 298 297 297 296 295 293 293 292 292 292 291 290 290 289 288 287 288 291 293 294 292 295 293 291 289 287
304 304 301 299 297 297 297 298 300 298 303 302 302 300 299 299 298 297 295 294 294 293 292 291 290 289 289 290 290 289 288 287 287 286 285 285 287 287 289 291 292 290 287 285
303 302 300 300 297 296 296 296 296 298 298 300 299 298 296 294 293 292 291 291 290 290 289 288 287 287 287 288 289 288 287 286 286 285 284 284 283 284 284 286 288 288 287 285
301 300 299 299 298 295 297 296 295 296 297 296 297 295 292 291 289 288 287 287 286 286 286 285 285 285 285 286 287 287 286 285 285 285 284 283 283 282 282 282 283 283 284 284
300 297 298 296 297 294 295 296 295 294 294 296 294 293 290 288 287 286 285 284 284 283 284 283 283 284 284 285 285 286 286 285 284 284 284 284 283 282 282 281 281 281 281 281
297 298 297 294 293 293 294 294 296 294 293 292 292 292 291 288 286 285 285 284 283 282 282 281 282 282 283 284 285 285 285 285 284 283 283 282 281 281 281 280 281 281 280 281
296 296 295 295 294 294 292 292 294 293 292 291 290 290 290 288 286 285 283 284 283 282 282 281 281 282 283 283 284 284 284 284 283 283 283 282 281 281 280 280 280 280 280 281
294 295 293 292 291 291 291 290 290 290 290 288 287 287 287 286 284 283 283 282 282 282 281 282 281 282 283 284 284 284 284 284 284 284 284 284 284 283 283 282 282 282 282 281
291 290 289 288 288 288 289 287 287 286 285 285 285 285 285 285 283 282 282 281 281 281 280 280 281 281 283 284 284 284 284 284 284 284 283 283 283 281 280 279 279 279 279 279
288 287 285 284 284 285 285 283 283 282 282 283 283 282 282 282 282 282 282 283 281 280 280 280 280 281 282 283 283 283 283 283 283 283 282 282 281 280 279 279 278 278 278 277
285 284 283 281 280 281 281 280 280 280 279 281 282 281 280 280 281 281 280 280 280 280 279 280 280 280 281 282 283 283 282 282 281 281 281 281 281 280 279 279 278 278 277 276
282 281 280 279 278 277 278 278 278 279 278 279 280 280 280 279 278 279 279 278 278 279 279 279 280 280 280 281 282 282 282 282 282 281 281 280 280 279 278 278 277 276 276 275
279 278 277 278 277 277 276 277 277 277 277 277 278 278 279 278 277 279 280 279 277 278 278 277 277 279 280 281 281 281 281 281 281 280 279 279 279 278 278 277 276 275 274 273
279 277 276 276 277 276 276 275 276 276 276 276 277 278 279 279 278 276 276 277 277 277 276 276 276 277 279 280 280 280 280 280 280 279 279 279 278 277 276 275 275 274 274 273
279 278 277 276 276 276 275 276 275 275 275 275 274 275 278 277 277 277 276 275 275 274 275 275 276 277 278 279 279 279 279 279 279 278 278 277 277 276 275 275 274 273 272 272
278 277 277 277 277 278 278 276 276 276 276 276 275 275 276 277 276 276 275 275 275 274 273 274 275 276 277 277 277 277 277 277 277 276 276 275 275 274 274 273 273 272 271 271
278 278 278 278 280 280 279 278 277 278 278 277 276 276 275 275 275 274 274 274 274 274 274 273 274 275 275 275 275 275 275 275 275 275 274 274 273 273 272 272 271 270 269 269
279 279 278 277 278 278 278 278 278 277 278 278 276 276 275 275 275 275 274 273 273 273 273 273 273 273 273 273 273 273 273 273 273 273 273 273 272 271 271 270 270 270 269 268
279 278 279 279 278 277 276 276 277 277 276 276 275 275 275 275 274 274 274 274 273 273 272 272 271 272 272 272 272 271 271 272 272 272 271 271 270 270 270 270 269 268 267 266

GFSNGP_925_thetae_123.txt.gz
Theta_e
304 305 306 306 308 313 315 315 315 314 314 317 319 321 321 318 314 320 320 317 315 312 310 309 307 305 304 304 304 306 309 311 312 318 322 323 325 326 326 324 323 322 321 320
305 306 306 307 312 313 314 314 316 317 316 316 317 314 314 312 311 311 317 314 312 312 311 309 306 304 303 301 301 302 303 304 306 311 316 321 324 325 325 323 322 321 321 319
307 307 307 313 313 311 311 311 312 314 316 317 317 314 311 311 311 311 309 309 308 307 306 307 306 303 301 299 299 298 298 299 301 304 308 310 317 324 325 324 322 321 320 319
307 307 309 310 306 307 310 309 307 308 310 315 315 314 314 312 312 311 309 306 305 303 302 301 303 302 299 297 297 296 296 296 296 298 301 306 309 314 317 323 323 321 320 319
309 309 308 306 304 307 307 311 307 306 307 310 311 310 309 308 308 307 305 303 301 299 298 297 299 298 296 295 295 294 294 294 294 295 296 299 304 305 309 314 321 323 321 320
308 311 312 304 303 303 306 311 305 304 306 306 311 309 307 305 305 303 303 300 298 296 295 295 296 295 294 294 294 293 293 292 292 292 293 295 298 301 303 310 313 321 321 319
307 308 309 301 302 303 305 305 303 300 305 303 302 303 302 302 301 299 299 299 296 294 293 293 293 293 292 292 292 291 291 290 290 290 291 292 294 298 300 305 308 312 315 312
306 307 303 299 300 302 301 301 301 298 303 305 303 301 300 299 297 297 296 295 295 293 292 290 290 291 291 291 290 290 289 288 287 288 289 291 291 294 297 297 297 295 296 299
304 304 302 298 298 297 298 299 299 299 300 302 300 299 297 295 295 293 292 292 291 291 289 288 288 288 289 290 288 288 287 287 286 285 286 288 289 290 292 292 292 290 288 287
302 301 299 297 296 296 297 297 297 298 299 299 298 296 294 292 291 291 289 288 288 288 287 287 286 287 287 288 287 287 286 286 285 284 284 284 285 285 288 291 291 290 289 286
300 300 299 298 295 295 296 295 295 296 296 297 295 293 291 290 289 288 287 286 286 286 285 285 285 286 286 287 287 286 285 285 284 283 283 283 283 283 283 283 289 288 285 285
293 297 297 298 296 294 295 296 294 294 295 295 293 291 289 288 286 285 285 284 284 283 284 284 284 284 285 286 286 285 285 284 284 283 283 282 282 282 282 282 282 283 283 283
295 296 296 295 295 293 294 294 295 294 293 292 293 290 288 286 285 285 283 283 282 282 282 282 283 283 284 285 285 285 284 284 283 282 282 282 281 281 281 282 281 281 281 281
296 295 294 292 289 291 292 292 293 292 291 290 290 290 288 286 284 283 284 282 282 281 281 281 282 283 284 284 284 284 284 283 283 281 281 280 280 280 281 281 281 282 282 282
295 296 294 292 292 292 290 290 290 290 288 287 287 288 287 285 283 283 282 282 281 281 281 281 282 283 284 284 284 284 283 283 282 282 281 281 281 280 280 281 281 281 280 280
293 291 290 289 289 289 288 287 287 286 285 285 285 285 284 283 283 282 281 281 280 280 280 281 281 282 284 284 284 284 284 284 284 283 282 281 280 280 280 279 280 279 279 278
289 287 286 285 285 286 285 284 284 283 283 284 284 283 283 283 282 281 281 280 280 280 280 280 281 282 283 284 284 283 283 283 283 282 281 280 279 279 278 278 278 278 277 277
285 283 282 281 282 283 282 281 281 280 280 281 281 280 280 281 280 280 279 280 279 279 279 280 280 281 282 283 283 283 283 282 282 281 280 279 279 278 278 277 277 276 276 276
282 282 280 279 279 280 279 279 279 278 278 280 280 279 279 278 279 279 278 278 278 279 278 280 280 280 281 282 282 282 281 281 281 281 280 279 278 278 278 277 276 275 275 274
280 279 279 278 277 277 277 277 278 277 277 278 278 279 278 277 278 278 277 277 277 278 278 278 279 280 281 282 282 282 282 281 281 280 280 279 278 278 277 276 275 275 274 273
277 277 276 278 276 276 276 276 276 276 276 277 277 277 278 277 277 277 277 276 276 276 276 276 277 279 280 281 281 281 281 280 279 279 278 278 277 277 276 275 274 273 273 272
277 276 275 276 276 275 275 275 275 275 275 275 276 277 277 277 275 275 275 275 275 275 275 276 277 279 280 280 280 280 280 280 279 279 278 277 277 276 275 274 274 273 272 271
278 277 276 276 276 276 275 275 275 275 274 274 275 276 277 276 275 275 275 274 273 274 275 276 277 278 279 279 279 279 279 279 278 278 277 277 276 275 274 274 273 273 272 271
277 277 277 277 277 277 276 276 276 276 276 276 275 275 275 275 275 274 274 274 274 273 274 274 275 277 277 277 277 277 277 277 277 276 276 276 275 274 274 273 272 272 271 270
278 277 277 278 278 279 278 278 277 276 276 276 275 275 275 274 273 273 274 273 273 273 273 274 274 274 274 275 275 275 275 275 275 274 274 274 273 273 272 272 271 271 270 269
278 278 277 277 277 276 276 277 276 276 276 275 275 274 274 274 274 274 273 273 273 272 272 273 273 273 273 273 273 273 273 273 273 273 273 272 272 272 271 270 270 269 269 268
278 279 279 277 277 276 276 276 275 274 274 275 275 274 274 274 274 273 273 273 272 272 271 271 271 271 271 271 271 272 272 272 272 271 271 270 270 270 270 270 269 269 268 267

GFSNGP_925_thetae_126.txt.gz
Theta_e
299 300 302 304 309 308 312 310 312 312 316 315 316 317 315 313 310 310 313 314 312 310 308 306 304 303 301 300 301 303 303 304 306 312 317 324 326 326 327 327 326 325 324 322
302 302 304 307 308 308 310 308 307 307 311 309 313 313 313 312 311 310 308 306 309 309 307 305 303 301 299 298 298 299 299 299 300 304 310 315 320 324 326 326 325 323 322 321
303 302 304 312 307 306 309 306 307 307 307 306 315 314 313 312 310 309 307 305 303 301 301 303 300 298 297 297 297 297 297 296 298 299 301 305 310 315 324 325 323 321 321 321
303 305 305 305 303 303 305 307 305 304 304 306 310 307 306 308 310 307 304 302 300 298 296 299 297 295 295 295 295 295 295 294 295 296 297 299 303 304 311 319 322 322 320 319
309 308 306 303 301 301 303 306 303 303 302 304 307 305 302 301 302 301 299 297 295 294 294 295 294 293 293 293 293 293 292 292 292 293 294 295 296 298 303 308 312 320 321 320
306 307 308 301 300 300 301 306 301 301 302 303 303 302 301 298 297 297 296 294 293 292 291 292 292 292 291 291 291 291 291 290 290 291 292 293 294 296 298 302 308 313 319 319
305 305 303 299 298 299 304 301 300 299 301 303 301 301 299 297 295 293 293 293 291 290 289 288 289 291 291 290 290 289 289 288 288 289 290 292 292 294 296 298 302 305 300 307
302 302 301 298 298 299 298 298 299 299 300 301 300 297 295 294 293 291 290 290 289 288 287 287 288 289 290 289 288 288 287 286 286 286 287 290 291 292 293 294 294 294 294 291
299 300 300 297 296 296 297 297 297 298 300 299 298 296 293 292 290 289 288 287 287 286 286 286 287 287 288 288 287 287 286 285 284 284 285 286 287 288 290 291 291 291 289 286
300 300 299 297 296 295 296 294 295 296 297 297 295 293 291 290 288 288 286 286 285 285 285 286 286 286 287 287 286 286 285 284 284 283 283 284 284 284 285 288 289 289 289 287
298 299 298 296 295 294 295 295 294 295 295 296 292 291 289 288 287 286 285 284 284 284 284 284 285 285 286 286 286 285 284 284 283 283 283 283 283 283 283 283 286 285 284 285
294 297 296 297 295 293 294 294 295 293 293 294 291 289 287 287 285 284 283 283 282 282 282 282 283 284 285 285 285 284 284 283 283 282 282 282 282 282 283 282 282 282 282 282
294 296 296 295 293 293 292 294 293 291 290 290 290 287 286 285 285 283 282 282 281 281 281 282 283 283 284 284 284 284 283 282 282 281 281 281 281 282 282 283 282 282 282 281
293 294 294 289 288 290 291 291 290 289 288 287 288 288 286 284 283 282 282 281 281 281 281 281 283 283 284 283 283 283 282 282 281 281 281 281 281 281 281 281 280 280 281 281
294 296 292 289 289 288 288 288 288 287 286 285 285 286 284 283 282 281 281 280 280 280 280 281 282 283 284 284 283 283 282 282 282 281 281 281 281 281 281 280 279 279 279 279
289 288 287 287 287 286 284 285 285 284 284 284 284 284 283 282 282 281 280 280 279 279 280 280 281 283 284 284 284 284 283 283 282 282 281 280 280 279 279 278 278 277 277 277
289 286 285 284 284 283 282 282 282 282 282 282 282 281 282 281 280 280 279 279 279 279 280 280 281 282 283 283 283 283 283 282 281 281 280 279 279 278 278 277 276 275 275 276
282 281 281 281 281 281 281 280 280 279 279 279 280 279 279 278 278 278 278 278 279 278 278 279 280 281 282 283 283 283 282 282 281 280 279 279 278 278 277 276 275 275 274 275
281 280 279 279 279 279 278 278 277 277 278 279 279 278 277 278 278 277 277 277 277 277 277 278 279 280 281 282 282 282 281 281 280 279 278 278 277 277 276 276 275 275 274 274
279 279 278 277 276 277 277 276 277 276 277 277 278 278 276 277 277 277 276 275 276 275 276 277 278 280 281 282 281 281 281 281 280 279 278 278 277 276 276 275 275 274 274 273
277 277 277 276 275 275 275 276 276 275 275 276 276 277 275 275 276 276 275 274 275 275 275 277 278 279 280 281 281 281 281 280 280 279 278 277 277 276 275 275 274 273 273 272
275 275 275 276 275 275 275 275 275 274 275 276 276 276 276 275 275 274 274 273 274 274 275 276 277 279 280 280 280 280 279 279 278 278 277 277 276 275 274 274 273 272 272 271
276 276 276 276 276 276 275 275 275 275 275 275 275 276 275 274 274 274 274 274 273 274 275 275 277 278 278 279 279 279 279 279 278 278 277 276 275 275 274 273 272 272 271 270
277 277 277 277 277 277 276 276 276 276 275 275 275 274 274 274 274 274 273 274 273 273 274 274 275 276 277 277 277 277 277 277 277 276 276 275 275 274 273 273 272 271 271 270
277 277 277 278 277 277 277 277 276 276 276 275 274 274 274 274 273 273 273 273 272 272 273 273 273 274 275 275 275 275 275 275 275 275 274 274 274 273 273 272 271 271 270 269
278 277 277 276 276 276 277 276 275 276 275 275 274 274 273 274 274 273 273 272 272 272 272 272 272 272 273 273 273 274 274 273 273 273 273 272 272 272 271 270 270 270 269 268
278 278 277 276 276 276 275 275 274 274 275 274 274 274 274 273 273 273 272 272 271 271 271 271 271 271 271 271 272 272 272 272 272 271 271 271 271 270 270 270 269 269 268 268

GFSNGP_925_thetae_129.txt.gz
Theta_e
300 300 299 299 303 306 308 309 309 307 308 310 306 309 313 311 309 308 306 303 303 305 302 301 299 298 298 298 298 299 301 301 302 306 313 318 324 326 328 328 328 328 328 327
300 300 300 302 306 304 308 308 304 304 304 303 307 307 312 311 309 307 305 301 300 300 300 298 297 296 296 296 297 297 297 297 298 301 304 308 314 319 323 326 326 325 324 323
302 301 302 309 304 302 304 305 304 305 304 303 304 303 303 306 304 303 301 298 297 297 296 295 294 294 294 294 295 295 294 294 295 297 299 301 305 312 314 318 323 324 324 322
302 303 301 302 304 301 301 305 301 303 302 303 303 300 299 299 299 298 296 295 294 293 294 293 292 292 292 292 293 293 292 292 293 293 295 297 299 302 306 310 313 320 322 321
306 307 305 304 302 300 301 302 299 301 301 302 302 299 298 296 296 295 294 293 291 290 290 290 291 291 291 290 290 291 290 290 290 292 292 294 294 296 300 304 307 312 316 320
304 305 303 300 300 298 299 302 297 299 299 303 300 300 299 297 293 292 291 291 289 288 288 288 289 291 290 289 289 289 289 288 288 290 290 290 291 293 296 298 301 304 309 311
304 305 301 300 297 297 304 297 297 298 300 300 300 298 296 294 292 290 289 288 288 287 287 287 288 289 289 288 288 288 287 287 287 288 289 289 291 291 293 294 297 297 298 299
300 301 299 297 298 299 297 296 297 298 299 298 296 297 294 291 290 288 287 287 286 286 287 286 287 288 288 288 287 286 286 285 285 286 286 287 289 290 291 292 293 293 293 293
298 297 298 297 296 295 296 295 296 297 297 296 294 293 291 289 288 288 286 286 285 286 286 286 286 286 287 287 286 286 285 284 284 284 285 285 286 286 288 289 290 290 289 289
299 297 298 297 296 295 294 296 294 295 295 294 293 291 290 288 286 286 285 284 284 284 284 285 285 285 286 286 285 285 285 284 283 283 283 284 284 284 284 285 286 286 286 286
298 298 298 297 295 293 293 295 295 294 294 293 291 289 288 287 285 284 284 282 282 282 282 283 284 285 285 285 285 285 284 283 283 282 282 283 283 283 283 283 284 283 283 284
293 295 294 297 295 293 293 293 295 291 291 292 289 287 286 286 284 283 282 282 281 281 281 282 283 283 284 284 284 284 284 282 282 282 282 282 283 283 283 283 282 282 282 282
294 296 295 295 292 292 291 293 291 288 288 288 289 286 284 284 283 282 281 280 280 280 280 281 283 283 283 283 283 282 282 282 281 281 281 281 281 282 282 281 282 282 282 281
293 293 293 288 287 289 290 289 289 287 286 286 286 286 284 283 282 281 280 279 280 280 280 281 282 283 283 283 282 281 281 281 281 281 281 281 280 280 280 280 279 278 279 280
294 292 289 287 287 286 286 287 286 285 285 285 284 284 283 283 282 281 280 280 279 279 280 281 281 282 283 284 283 283 283 282 281 281 281 281 280 280 279 279 278 277 278 278
287 287 287 288 286 285 284 284 284 284 283 284 283 283 282 282 281 280 279 278 278 277 279 280 280 282 283 283 283 283 282 282 281 281 280 280 279 279 278 277 276 276 276 276
288 287 286 285 285 283 282 282 282 281 281 281 281 280 281 280 279 279 278 278 278 278 278 279 279 281 282 282 283 283 282 281 280 280 280 279 278 277 277 276 275 274 274 275
283 281 281 281 282 282 281 280 279 278 279 279 278 278 278 278 277 277 277 277 278 277 277 278 279 280 281 282 282 282 282 281 280 279 279 279 278 277 276 276 275 274 274 275
281 280 279 279 279 279 278 278 277 276 277 277 278 277 276 277 277 276 276 276 275 275 275 276 278 280 281 281 281 281 281 280 279 279 278 278 277 277 276 276 275 274 274 274
280 279 278 277 276 277 276 276 276 276 276 276 277 276 276 276 276 276 275 274 274 274 275 277 278 279 280 281 281 281 281 280 279 278 278 277 277 276 275 275 274 274 274 273
277 277 277 275 275 274 275 275 275 274 275 276 276 275 275 275 274 274 274 273 274 274 275 277 278 279 280 281 281 281 280 280 279 278 278 277 276 275 275 274 273 273 273 273
275 275 275 275 275 275 275 275 274 274 275 276 276 275 275 275 274 274 273 273 273 274 275 276 277 278 279 280 280 280 279 279 278 278 277 276 276 275 274 273 273 272 272 271
276 276 276 276 276 276 275 275 275 275 274 274 275 275 274 274 273 273 273 273 273 273 274 274 275 277 277 278 278 278 278 278 278 277 277 276 275 274 273 273 272 271 271 270
277 276 277 277 277 277 277 276 276 276 275 274 274 274 273 273 273 273 273 273 272 273 273 273 274 275 276 276 276 276 276 276 276 276 276 275 274 274 273 273 272 271 270 270
277 277 277 277 277 276 277 277 276 276 275 275 274 274 274 273 273 273 273 272 272 272 272 272 273 273 274 274 274 275 275 274 274 274 274 274 273 273 272 272 271 271 270 269
277 277 276 275 275 276 276 275 275 275 275 274 274 274 273 273 273 272 272 272 271 271 271 271 271 271 272 272 273 273 273 273 273 273 272 272 272 272 271 271 270 270 269 269
277 277 276 276 275 275 275 274 273 274 274 274 273 273 273 273 272 272 272 271 271 271 270 270 270 270 270 270 271 271 271 271 271 271 271 271 270 270 270 269 269 269 268 268

GFSNGP_925_thetae_132.txt.gz
Theta_e
298 298 298 299 298 304 300 304 308 305 305 305 304 302 305 303 302 300 299 297 295 295 294 294 294 294 295 296 296 296 297 298 299 302 307 312 318 322 325 327 328 327 327 327
299 298 298 300 305 303 303 306 303 303 303 302 303 300 299 300 299 298 297 295 294 294 293 293 293 292 292 294 294 294 294 294 296 298 300 303 306 312 319 323 325 327 327 328
301 301 301 304 303 301 297 302 302 302 303 303 304 300 298 298 298 297 295 294 292 292 291 291 292 291 291 291 292 292 292 292 293 294 296 297 299 303 307 313 319 322 324 326
302 303 299 299 300 300 299 302 300 301 301 301 302 300 298 295 295 294 292 291 290 289 289 289 290 291 290 290 290 290 290 290 290 291 293 295 296 297 301 306 309 313 319 322
302 306 304 300 301 299 299 300 298 298 300 301 299 300 299 295 293 292 290 290 289 287 288 288 289 290 289 289 289 288 288 288 288 289 290 291 293 294 296 299 302 305 308 315
304 305 300 299 299 297 298 301 297 297 298 300 298 298 297 294 292 290 288 288 287 287 287 287 287 289 288 288 288 287 287 286 286 287 288 288 290 292 294 295 296 299 300 301
303 302 301 298 297 297 303 296 297 297 298 298 298 298 295 292 291 289 287 286 286 286 287 286 287 288 288 287 286 286 286 285 285 286 286 287 288 290 292 293 294 295 295 295
300 301 300 296 296 299 296 296 296 296 298 298 296 295 293 290 288 287 286 285 285 285 286 285 286 286 287 286 286 286 285 284 284 284 285 285 287 289 290 290 291 291 291 291
298 296 296 295 295 295 294 296 295 295 297 296 294 292 291 289 286 286 284 283 283 283 284 284 285 285 286 285 285 285 285 284 283 284 284 284 284 285 286 287 287 287 287 286
300 296 297 295 295 294 293 294 295 294 296 295 292 290 289 287 285 284 283 282 282 282 282 283 283 284 284 284 285 284 283 283 283 283 283 283 283 283 283 284 284 284 284 284
298 298 297 296 295 293 292 293 294 293 292 293 290 288 287 286 284 283 283 282 281 281 281 281 282 283 283 283 283 284 283 282 282 282 282 283 283 283 283 283 283 283 283 283
291 293 294 296 293 292 292 294 292 290 290 289 288 286 285 283 283 282 281 280 280 280 280 281 282 282 282 281 282 282 283 282 281 281 282 282 282 281 281 282 282 282 282 282
291 294 292 292 291 291 291 292 290 286 286 286 288 285 284 283 282 280 279 279 279 278 279 280 282 282 282 282 282 282 281 282 281 281 280 280 280 280 280 280 279 279 281 281
293 294 292 288 287 288 289 288 287 285 285 285 285 284 284 283 281 280 279 279 279 279 279 280 281 282 283 283 283 283 282 281 281 280 280 280 280 279 278 277 277 277 277 277
292 291 288 286 286 285 285 285 285 284 283 284 283 283 283 282 282 280 279 278 278 278 279 279 280 281 282 283 283 282 281 280 280 280 280 280 279 279 278 277 275 275 276 277
288 288 287 286 285 284 284 283 284 282 282 282 282 281 282 281 280 279 278 277 277 276 277 278 279 280 281 282 282 282 281 280 280 280 280 279 278 277 277 276 275 274 273 274
288 287 286 285 285 283 282 281 281 280 280 281 280 279 279 279 278 277 277 277 276 276 276 277 278 280 281 281 282 281 281 280 280 279 279 278 277 276 276 275 274 273 273 275
282 281 281 282 282 282 281 280 278 278 278 278 277 277 277 276 275 275 275 275 276 276 276 277 278 279 280 281 281 281 281 279 279 278 278 277 276 276 275 275 274 274 274 274
280 280 279 279 279 278 278 277 276 276 276 276 277 275 275 275 275 275 274 274 274 274 275 276 278 279 280 281 281 281 280 279 278 278 277 276 276 275 275 274 274 274 273 274
279 278 277 276 276 276 275 275 275 275 275 276 276 276 275 274 274 274 274 273 273 273 275 276 277 278 279 280 280 280 280 279 278 278 277 276 275 275 274 274 273 273 273 273
278 277 276 275 274 274 275 274 274 274 275 276 275 274 274 274 274 274 273 272 273 274 275 276 276 277 278 279 280 280 279 279 278 277 277 276 275 274 274 273 273 272 272 272
274 274 275 275 275 274 274 274 274 274 275 275 275 274 274 273 273 273 273 272 273 273 274 274 275 276 277 278 279 278 278 278 277 277 276 276 275 274 273 272 272 271 271 271
275 275 275 276 276 275 275 275 275 274 274 274 274 274 274 273 273 272 272 272 272 272 273 273 274 275 276 276 277 277 277 277 277 276 276 275 274 273 273 272 271 271 270 269
276 276 276 276 276 276 276 275 275 275 274 274 274 274 273 273 273 272 272 272 271 272 272 272 273 274 274 275 275 275 275 275 275 275 274 274 274 273 272 272 271 270 270 269
277 277 277 277 276 276 276 276 275 275 275 274 273 273 273 273 273 272 272 271 271 271 271 271 271 272 272 273 273 273 273 273 273 273 273 273 273 272 272 271 271 270 269 269
277 276 275 275 275 276 275 275 275 275 274 274 273 273 273 272 272 272 271 271 271 270 270 270 270 270 271 271 271 272 272 272 272 272 272 271 271 271 270 270 270 269 269 268
276 276 275 275 275 275 274 273 273 274 274 273 273 273 272 272 271 271 271 270 270 270 269 269 269 269 269 269 270 270 270 270 270 270 270 270 270 269 269 269 268 268 268 267

GFSNGP_925_thetae_135.txt.gz
Theta_e
298 297 297 298 299 300 304 303 306 306 305 304 303 304 301 299 298 297 296 294 292 292 291 291 291 291 291 292 293 293 294 295 296 298 302 306 311 316 324 326 328 328 328 328
298 298 297 299 301 304 303 304 305 303 304 302 302 302 300 298 297 296 295 293 292 290 290 291 291 291 291 291 291 291 292 292 293 295 297 298 302 309 314 320 323 326 326 326
301 301 302 305 303 302 301 302 302 303 302 301 301 302 299 297 295 295 293 292 291 290 290 289 289 290 290 290 290 291 291 290 290 292 293 294 297 301 305 308 313 319 322 324
303 304 306 302 301 300 300 301 300 299 298 299 299 299 298 296 294 292 291 290 289 288 288 288 288 289 289 289 289 290 289 289 289 290 291 291 293 295 298 302 305 309 314 317
304 306 304 305 303 299 300 301 297 298 297 298 298 299 299 294 292 291 290 288 288 287 288 288 288 288 289 288 289 288 288 288 288 288 290 290 291 292 294 296 298 301 302 307
304 305 304 301 299 298 298 302 297 297 296 297 298 299 298 293 291 289 288 287 286 287 287 287 287 288 288 288 287 287 287 286 287 287 288 288 289 289 291 293 293 296 297 298
304 304 303 300 298 298 303 302 297 297 296 297 297 297 295 292 289 288 286 285 285 285 286 286 286 287 287 287 286 286 286 285 286 286 286 286 288 288 290 291 292 292 291 292
303 303 303 298 297 301 298 296 297 296 296 297 296 294 292 290 287 286 285 284 284 284 285 285 285 286 286 285 286 285 285 285 285 285 285 285 286 287 287 288 289 288 288 288
301 301 298 297 297 296 295 296 296 296 296 295 293 291 290 289 287 285 284 283 283 283 284 284 284 284 284 284 285 285 284 284 284 285 285 284 284 284 285 285 286 286 286 286
301 298 299 297 296 295 294 295 296 295 295 294 292 290 288 288 286 284 284 283 283 283 283 283 283 283 283 283 284 284 284 284 284 284 284 283 283 284 284 284 284 284 284 284
300 299 298 297 296 295 293 294 295 293 292 292 291 288 287 286 285 283 282 281 282 282 282 282 282 282 282 282 283 284 284 283 283 283 283 283 282 281 282 282 283 283 283 283
299 296 298 298 295 293 294 293 292 291 290 289 289 287 286 285 283 282 281 280 280 280 281 281 282 282 282 282 283 282 283 283 282 282 282 282 282 282 280 280 280 280 281 282
297 295 295 294 293 292 293 291 288 286 286 287 287 286 284 284 282 280 280 279 279 279 279 280 280 281 280 281 281 281 281 281 281 281 281 281 282 281 281 280 278 278 278 279
294 294 294 291 292 290 290 288 287 285 285 285 285 284 284 283 282 280 278 278 278 278 278 279 279 280 281 281 282 281 280 280 279 279 279 279 279 279 279 279 279 278 276 275
293 292 290 288 287 286 286 286 285 285 284 283 283 283 283 282 281 280 278 277 277 277 277 278 279 280 281 281 281 281 280 279 279 279 278 278 278 278 277 277 277 277 277 277
291 289 288 288 286 285 284 284 284 282 282 282 281 281 281 280 279 277 276 276 276 275 276 276 277 279 280 281 281 281 279 279 279 279 278 278 278 277 277 277 276 275 275 274
289 289 287 287 286 284 282 282 281 280 280 280 279 278 278 279 277 275 275 275 275 275 276 275 277 279 280 280 280 280 279 279 278 278 277 277 277 276 276 276 276 275 273 273
284 282 282 283 283 282 281 279 279 278 278 277 276 276 275 275 275 274 274 274 275 275 275 276 277 278 279 280 280 280 279 278 278 277 276 276 275 275 275 274 274 274 274 274
281 281 280 280 279 279 278 277 276 276 275 276 276 274 274 274 273 273 273 273 273 275 274 275 277 277 278 279 280 280 279 278 277 276 276 275 274 274 273 273 273 272 272 272
279 278 277 276 276 276 275 274 275 275 275 275 275 274 273 273 273 273 273 273 273 273 273 274 275 277 278 279 279 279 278 278 277 276 275 274 274 273 272 272 271 271 271 270
278 276 275 274 273 273 273 274 275 274 274 275 274 273 273 273 273 272 273 273 272 273 274 274 274 275 276 278 278 278 277 277 276 276 275 274 273 272 271 271 270 270 270 270
274 273 273 274 274 273 274 274 274 274 274 274 274 273 273 273 272 272 271 271 271 272 272 272 274 275 276 277 277 277 276 276 276 275 274 274 273 272 271 270 269 269 269 269
274 274 274 274 274 274 274 274 274 274 274 274 273 273 272 272 271 272 272 271 271 271 271 272 273 274 275 275 275 275 275 275 274 274 273 273 272 271 271 270 270 269 268 268
274 274 275 275 275 275 275 275 275 274 274 274 273 273 273 272 272 271 271 271 271 270 270 271 271 272 273 273 273 273 273 273 273 273 273 273 272 272 271 270 270 269 268 268
276 275 275 275 275 274 274 275 274 274 274 273 273 273 273 272 272 271 271 270 270 270 270 270 270 271 271 272 272 272 271 272 272 271 271 271 271 270 270 270 269 269 268 268
276 275 275 275 275 275 274 274 273 273 273 273 273 272 272 272 271 271 271 270 270 269 269 269 269 269 269 270 270 270 270 270 270 270 270 270 270 270 269 269 269 268 268 268
275 275 274 274 274 274 273 273 273 273 273 273 272 272 271 271 271 270 270 270 269 269 268 268 268 268 268 268 268 269 269 269 269 269 269 269 269 269 268 268 268 268 267 267